Wetterdaten: Mittwoch, 07.08.2019
Datum Zeit Temp. Aussen Temp. o. S. +5cm Feuchte Auss Luftdruck Regen Sonnenschein Regendauer Solar Windben Empfang
07.08.2019 00:00 20,3 C 18,9 C 18,9 C 84 % 1008,2 hPa 0,0 l/m 0 min 0 min 0 W/m 9,7 km/h (2 Bft) 97,83 %
07.08.2019 00:02 20,2 C 18,9 C 18,9 C 84 % 1008,1 hPa 0,0 l/m 0 min 0 min 0 W/m 9,7 km/h (2 Bft) 100,00 %
07.08.2019 00:04 20,2 C 18,9 C 18,3 C 84 % 1008,1 hPa 0,0 l/m 0 min 0 min 0 W/m 12,9 km/h (3 Bft) 97,87 %
07.08.2019 00:08 20,1 C 18,9 C 18,3 C 84 % 1008,0 hPa 0,0 l/m 0 min 0 min 0 W/m 9,7 km/h (2 Bft) 96,81 %
07.08.2019 00:10 20,1 C 18,9 C 18,3 C 85 % 1008,1 hPa 0,0 l/m 0 min 0 min 0 W/m 9,7 km/h (2 Bft) 97,87 %
07.08.2019 00:12 20,1 C 18,9 C 18,3 C 85 % 1008,2 hPa 0,0 l/m 0 min 0 min 0 W/m 6,4 km/h (2 Bft) 97,83 %
07.08.2019 00:14 20,1 C 18,9 C 18,3 C 85 % 1008,1 hPa 0,0 l/m 0 min 0 min 0 W/m 12,9 km/h (3 Bft) 95,74 %
07.08.2019 00:16 20,0 C 18,9 C 18,3 C 85 % 1008,1 hPa 0,0 l/m 0 min 0 min 0 W/m 9,7 km/h (2 Bft) 100,00 %
07.08.2019 00:18 20,0 C 18,9 C 18,3 C 85 % 1008,1 hPa 0,0 l/m 0 min 0 min 0 W/m 9,7 km/h (2 Bft) 97,87 %
07.08.2019 00:20 20,0 C 18,9 C 18,3 C 85 % 1008,1 hPa 0,0 l/m 0 min 0 min 0 W/m 9,7 km/h (2 Bft) 100,00 %
07.08.2019 00:22 19,9 C 18,9 C 18,3 C 85 % 1008,0 hPa 0,0 l/m 0 min 0 min 0 W/m 12,9 km/h (3 Bft) 97,83 %
07.08.2019 00:24 19,9 C 18,9 C 18,3 C 85 % 1008,0 hPa 0,0 l/m 0 min 0 min 0 W/m 9,7 km/h (2 Bft) 95,74 %
07.08.2019 00:26 19,9 C 18,9 C 18,3 C 85 % 1008,0 hPa 0,0 l/m 0 min 0 min 0 W/m 6,4 km/h (2 Bft) 95,74 %
07.08.2019 00:28 19,9 C 18,9 C 18,3 C 85 % 1008,1 hPa 0,0 l/m 0 min 0 min 0 W/m 9,7 km/h (2 Bft) 100,00 %
07.08.2019 00:30 19,9 C 18,9 C 18,3 C 86 % 1008,0 hPa 0,0 l/m 0 min 0 min 0 W/m 6,4 km/h (2 Bft) 100,00 %
07.08.2019 00:32 19,9 C 18,9 C 18,3 C 86 % 1008,0 hPa 0,0 l/m 0 min 0 min 0 W/m 9,7 km/h (2 Bft) 97,87 %
07.08.2019 00:34 19,8 C 18,9 C 18,3 C 86 % 1008,0 hPa 0,0 l/m 0 min 0 min 0 W/m 12,9 km/h (3 Bft) 100,00 %
07.08.2019 00:36 19,8 C 18,9 C 18,3 C 86 % 1008,0 hPa 0,0 l/m 0 min 0 min 0 W/m 6,4 km/h (2 Bft) 100,00 %
07.08.2019 00:38 19,8 C 18,9 C 18,3 C 86 % 1008,0 hPa 0,0 l/m 0 min 0 min 0 W/m 9,7 km/h (2 Bft) 97,87 %
07.08.2019 00:40 19,8 C 18,9 C 18,3 C 86 % 1008,0 hPa 0,0 l/m 0 min 0 min 0 W/m 12,9 km/h (3 Bft) 97,87 %
07.08.2019 00:42 19,8 C 18,9 C 18,3 C 86 % 1008,0 hPa 0,0 l/m 0 min 0 min 0 W/m 16,1 km/h (3 Bft) 100,00 %
07.08.2019 00:44 19,8 C 18,9 C 18,3 C 86 % 1007,9 hPa 0,0 l/m 0 min 0 min 0 W/m 16,1 km/h (3 Bft) 100,00 %
07.08.2019 00:46 19,8 C 18,9 C 18,3 C 86 % 1008,0 hPa 0,0 l/m 0 min 0 min 0 W/m 9,7 km/h (2 Bft) 100,00 %
07.08.2019 00:48 19,7 C 18,9 C 18,9 C 86 % 1008,0 hPa 0,0 l/m 0 min 0 min 0 W/m 12,9 km/h (3 Bft) 100,00 %
07.08.2019 00:50 19,7 C 18,9 C 18,9 C 86 % 1008,1 hPa 0,0 l/m 0 min 0 min 0 W/m 9,7 km/h (2 Bft) 100,00 %
07.08.2019 00:52 19,7 C 18,9 C 18,9 C 86 % 1008,1 hPa 0,0 l/m 0 min 0 min 0 W/m 9,7 km/h (2 Bft) 97,87 %
07.08.2019 00:54 19,7 C 18,9 C 18,9 C 86 % 1008,1 hPa 0,0 l/m 0 min 0 min 0 W/m 12,9 km/h (3 Bft) 97,87 %
07.08.2019 00:56 19,7 C 18,9 C 18,9 C 86 % 1008,1 hPa 0,0 l/m 0 min 0 min 0 W/m 12,9 km/h (3 Bft) 100,00 %
07.08.2019 00:58 19,7 C 18,9 C 18,3 C 86 % 1008,0 hPa 0,0 l/m 0 min 0 min 0 W/m 12,9 km/h (3 Bft) 100,00 %
07.08.2019 01:00 19,7 C 18,9 C 18,3 C 86 % 1008,0 hPa 0,0 l/m 0 min 0 min 0 W/m 9,7 km/h (2 Bft) 100,00 %
07.08.2019 01:02 19,7 C 18,9 C 18,3 C 86 % 1008,0 hPa 0,0 l/m 0 min 0 min 0 W/m 9,7 km/h (2 Bft) 100,00 %
07.08.2019 01:04 19,7 C 18,9 C 18,3 C 86 % 1008,1 hPa 0,0 l/m 0 min 0 min 0 W/m 16,1 km/h (3 Bft) 100,00 %
07.08.2019 01:06 19,7 C 18,9 C 18,3 C 86 % 1008,1 hPa 0,0 l/m 0 min 0 min 0 W/m 9,7 km/h (2 Bft) 100,00 %
07.08.2019 01:08 19,7 C 18,9 C 18,3 C 86 % 1008,1 hPa 0,0 l/m 0 min 0 min 0 W/m 9,7 km/h (2 Bft) 100,00 %
07.08.2019 01:10 19,7 C 18,9 C 18,3 C 86 % 1008,1 hPa 0,0 l/m 0 min 0 min 0 W/m 12,9 km/h (3 Bft) 100,00 %
07.08.2019 01:12 19,7 C 18,9 C 18,3 C 86 % 1008,1 hPa 0,0 l/m 0 min 0 min 0 W/m 9,7 km/h (2 Bft) 100,00 %
07.08.2019 01:14 19,7 C 18,9 C 18,3 C 86 % 1008,1 hPa 0,0 l/m 0 min 0 min 0 W/m 9,7 km/h (2 Bft) 100,00 %
07.08.2019 01:16 19,6 C 18,3 C 18,3 C 86 % 1008,1 hPa 0,0 l/m 0 min 0 min 0 W/m 6,4 km/h (2 Bft) 100,00 %
07.08.2019 01:18 19,6 C 18,3 C 18,3 C 86 % 1008,2 hPa 0,0 l/m 0 min 0 min 0 W/m 6,4 km/h (2 Bft) 100,00 %
07.08.2019 01:20 19,6 C 18,3 C 18,3 C 86 % 1008,1 hPa 0,0 l/m 0 min 0 min 0 W/m 12,9 km/h (3 Bft) 100,00 %
07.08.2019 01:22 19,6 C 18,3 C 18,3 C 86 % 1008,1 hPa 0,0 l/m 0 min 0 min 0 W/m 16,1 km/h (3 Bft) 95,74 %
07.08.2019 01:24 19,6 C 18,3 C 18,3 C 86 % 1008,1 hPa 0,0 l/m 0 min 0 min 0 W/m 12,9 km/h (3 Bft) 95,74 %
07.08.2019 01:26 19,6 C 18,3 C 18,3 C 86 % 1008,1 hPa 0,0 l/m 0 min 0 min 0 W/m 9,7 km/h (2 Bft) 97,87 %
07.08.2019 01:28 19,6 C 18,3 C 18,3 C 86 % 1008,1 hPa 0,0 l/m 0 min 0 min 0 W/m 22,5 km/h (4 Bft) 100,00 %
07.08.2019 01:30 19,6 C 18,3 C 18,3 C 86 % 1008,1 hPa 0,0 l/m 0 min 0 min 0 W/m 16,1 km/h (3 Bft) 97,87 %
07.08.2019 01:32 19,5 C 18,3 C 18,3 C 86 % 1008,0 hPa 0,0 l/m 0 min 0 min 0 W/m 12,9 km/h (3 Bft) 97,83 %
07.08.2019 01:34 19,5 C 18,3 C 18,3 C 86 % 1008,0 hPa 0,0 l/m 0 min 0 min 0 W/m 12,9 km/h (3 Bft) 95,74 %
07.08.2019 01:36 19,5 C 18,3 C 18,3 C 86 % 1008,0 hPa 0,0 l/m 0 min 0 min 0 W/m 9,7 km/h (2 Bft) 100,00 %
07.08.2019 01:38 19,5 C 18,3 C 18,3 C 87 % 1008,0 hPa 0,0 l/m 0 min 0 min 0 W/m 19,3 km/h (3 Bft) 98,00 %
07.08.2019 01:40 19,5 C 18,3 C 18,3 C 87 % 1008,0 hPa 0,0 l/m 0 min 0 min 0 W/m 6,4 km/h (2 Bft) 97,87 %
07.08.2019 01:42 19,4 C 18,3 C 17,8 C 87 % 1008,0 hPa 0,0 l/m 0 min 0 min 0 W/m 9,7 km/h (2 Bft) 97,87 %
07.08.2019 01:44 19,4 C 18,3 C 17,8 C 87 % 1008,0 hPa 0,0 l/m 0 min 0 min 0 W/m 9,7 km/h (2 Bft) 100,00 %
07.08.2019 01:46 19,4 C 18,3 C 17,8 C 87 % 1008,0 hPa 0,0 l/m 0 min 0 min 0 W/m 16,1 km/h (3 Bft) 97,87 %
07.08.2019 01:48 19,4 C 18,3 C 17,8 C 87 % 1008,0 hPa 0,0 l/m 0 min 0 min 0 W/m 16,1 km/h (3 Bft) 97,87 %
07.08.2019 01:50 19,4 C 18,3 C 17,8 C 87 % 1008,0 hPa 0,0 l/m 0 min 0 min 0 W/m 9,7 km/h (2 Bft) 97,87 %
07.08.2019 01:52 19,3 C 18,3 C 17,8 C 87 % 1008,0 hPa 0,0 l/m 0 min 0 min 0 W/m 9,7 km/h (2 Bft) 97,87 %
07.08.2019 01:54 19,3 C 18,3 C 17,8 C 87 % 1008,0 hPa 0,0 l/m 0 min 0 min 0 W/m 9,7 km/h (2 Bft) 97,83 %
07.08.2019 01:56 19,3 C 17,8 C 17,8 C 87 % 1008,0 hPa 0,0 l/m 0 min 0 min 0 W/m 9,7 km/h (2 Bft) 97,87 %
07.08.2019 01:58 19,3 C 17,8 C 17,8 C 87 % 1008,0 hPa 0,0 l/m 0 min 0 min 0 W/m 9,7 km/h (2 Bft) 93,62 %
07.08.2019 02:00 19,3 C 17,8 C 17,8 C 87 % 1008,0 hPa 0,0 l/m 0 min 0 min 0 W/m 9,7 km/h (2 Bft) 97,87 %
07.08.2019 02:02 19,3 C 17,8 C 17,8 C 87 % 1008,0 hPa 0,0 l/m 0 min 0 min 0 W/m 12,9 km/h (3 Bft) 97,87 %
07.08.2019 02:04 19,2 C 17,8 C 17,8 C 87 % 1008,0 hPa 0,0 l/m 0 min 0 min 0 W/m 6,4 km/h (2 Bft) 97,87 %
07.08.2019 02:06 19,2 C 17,8 C 17,8 C 87 % 1008,0 hPa 0,0 l/m 0 min 0 min 0 W/m 9,7 km/h (2 Bft) 95,65 %
07.08.2019 02:08 19,2 C 17,8 C 17,8 C 87 % 1008,0 hPa 0,0 l/m 0 min 0 min 0 W/m 9,7 km/h (2 Bft) 93,62 %
07.08.2019 02:10 19,2 C 17,8 C 17,8 C 87 % 1008,0 hPa 0,0 l/m 0 min 0 min 0 W/m 9,7 km/h (2 Bft) 91,49 %
07.08.2019 02:12 19,2 C 17,8 C 17,8 C 87 % 1008,0 hPa 0,0 l/m 0 min 0 min 0 W/m 9,7 km/h (2 Bft) 91,49 %
07.08.2019 02:14 19,1 C 17,8 C 17,8 C 88 % 1008,0 hPa 0,0 l/m 0 min 0 min 0 W/m 9,7 km/h (2 Bft) 91,49 %
07.08.2019 02:16 19,1 C 17,8 C 17,8 C 88 % 1008,0 hPa 0,0 l/m 0 min 0 min 0 W/m 12,9 km/h (3 Bft) 91,49 %
07.08.2019 02:18 19,1 C 17,8 C 17,8 C 88 % 1008,0 hPa 0,0 l/m 0 min 0 min 0 W/m 9,7 km/h (2 Bft) 93,62 %
07.08.2019 02:20 19,1 C 17,8 C 17,8 C 88 % 1008,0 hPa 0,0 l/m 0 min 0 min 0 W/m 12,9 km/h (3 Bft) 91,30 %
07.08.2019 02:22 19,1 C 17,8 C 17,8 C 88 % 1008,0 hPa 0,0 l/m 0 min 0 min 0 W/m 6,4 km/h (2 Bft) 85,11 %
07.08.2019 02:24 19,1 C 17,8 C 17,8 C 88 % 1007,9 hPa 0,0 l/m 0 min 0 min 0 W/m 12,9 km/h (3 Bft) 93,62 %
07.08.2019 02:26 19,1 C 17,8 C 17,8 C 88 % 1007,9 hPa 0,0 l/m 0 min 0 min 0 W/m 6,4 km/h (2 Bft) 91,49 %
07.08.2019 02:28 19,0 C 17,8 C 17,8 C 88 % 1007,9 hPa 0,0 l/m 0 min 0 min 0 W/m 9,7 km/h (2 Bft) 93,62 %
07.08.2019 02:30 19,0 C 18,3 C 17,8 C 88 % 1008,0 hPa 0,0 l/m 0 min 0 min 0 W/m 12,9 km/h (3 Bft) 93,48 %
07.08.2019 02:32 19,0 C 18,3 C 17,8 C 89 % 1007,8 hPa 0,0 l/m 0 min 0 min 0 W/m 12,9 km/h (3 Bft) 93,62 %
07.08.2019 02:34 19,0 C 18,3 C 17,8 C 89 % 1007,9 hPa 0,0 l/m 0 min 0 min 0 W/m 16,1 km/h (3 Bft) 93,62 %
07.08.2019 02:36 19,0 C 18,3 C 17,8 C 89 % 1007,8 hPa 0,0 l/m 0 min 0 min 0 W/m 12,9 km/h (3 Bft) 89,36 %
07.08.2019 02:38 19,0 C 18,3 C 17,8 C 89 % 1007,8 hPa 0,0 l/m 0 min 0 min 0 W/m 16,1 km/h (3 Bft) 93,62 %
07.08.2019 02:40 19,0 C 17,8 C 17,8 C 89 % 1007,8 hPa 0,0 l/m 0 min 0 min 0 W/m 6,4 km/h (2 Bft) 87,23 %
07.08.2019 02:42 19,0 C 17,8 C 17,8 C 89 % 1007,8 hPa 0,0 l/m 0 min 0 min 0 W/m 9,7 km/h (2 Bft) 93,48 %
07.08.2019 02:44 18,9 C 17,8 C 17,8 C 89 % 1007,7 hPa 0,0 l/m 0 min 0 min 0 W/m 16,1 km/h (3 Bft) 95,74 %
07.08.2019 02:46 18,9 C 17,8 C 17,8 C 89 % 1007,8 hPa 0,0 l/m 0 min 0 min 0 W/m 9,7 km/h (2 Bft) 95,74 %
07.08.2019 02:48 18,9 C 17,8 C 17,8 C 89 % 1007,8 hPa 0,0 l/m 0 min 0 min 0 W/m 9,7 km/h (2 Bft) 93,62 %
07.08.2019 02:50 18,9 C 17,8 C 17,8 C 89 % 1007,8 hPa 0,0 l/m 0 min 0 min 0 W/m 16,1 km/h (3 Bft) 95,74 %
07.08.2019 02:52 18,9 C 17,8 C 17,8 C 89 % 1007,7 hPa 0,0 l/m 0 min 0 min 0 W/m 16,1 km/h (3 Bft) 95,74 %
07.08.2019 02:54 18,9 C 17,8 C 17,8 C 89 % 1007,7 hPa 0,0 l/m 0 min 0 min 0 W/m 9,7 km/h (2 Bft) 93,48 %
07.08.2019 02:56 18,9 C 17,8 C 17,8 C 89 % 1007,7 hPa 0,0 l/m 0 min 0 min 0 W/m 6,4 km/h (2 Bft) 97,87 %
07.08.2019 02:58 18,9 C 17,8 C 17,8 C 89 % 1007,7 hPa 0,0 l/m 0 min 0 min 0 W/m 9,7 km/h (2 Bft) 95,74 %
07.08.2019 03:00 18,9 C 17,8 C 17,8 C 89 % 1007,7 hPa 0,0 l/m 0 min 0 min 0 W/m 12,9 km/h (3 Bft) 97,87 %
07.08.2019 03:02 18,9 C 17,8 C 17,8 C 89 % 1007,6 hPa 0,0 l/m 0 min 0 min 0 W/m 16,1 km/h (3 Bft) 95,74 %
07.08.2019 03:04 18,9 C 17,8 C 17,8 C 89 % 1007,6 hPa 0,0 l/m 0 min 0 min 0 W/m 9,7 km/h (2 Bft) 97,87 %
07.08.2019 03:06 18,9 C 17,8 C 17,8 C 89 % 1007,7 hPa 0,0 l/m 0 min 0 min 0 W/m 6,4 km/h (2 Bft) 100,00 %
07.08.2019 03:08 18,9 C 17,8 C 17,8 C 89 % 1007,6 hPa 0,0 l/m 0 min 0 min 0 W/m 6,4 km/h (2 Bft) 95,74 %
07.08.2019 03:10 18,9 C 17,8 C 17,8 C 89 % 1007,6 hPa 0,0 l/m 0 min 0 min 0 W/m 6,4 km/h (2 Bft) 100,00 %
07.08.2019 03:12 18,9 C 17,8 C 17,8 C 89 % 1007,7 hPa 0,0 l/m 0 min 0 min 0 W/m 16,1 km/h (3 Bft) 93,62 %
07.08.2019 03:14 18,8 C 17,8 C 17,8 C 89 % 1007,6 hPa 0,0 l/m 0 min 0 min 0 W/m 16,1 km/h (3 Bft) 97,87 %
07.08.2019 03:16 18,8 C 17,8 C 17,8 C 89 % 1007,6 hPa 0,0 l/m 0 min 0 min 0 W/m 19,3 km/h (3 Bft) 100,00 %
07.08.2019 03:18 18,8 C 17,8 C 17,8 C 89 % 1007,6 hPa 0,0 l/m 0 min 0 min 0 W/m 12,9 km/h (3 Bft) 100,00 %
07.08.2019 03:20 18,8 C 17,8 C 17,8 C 89 % 1007,6 hPa 0,0 l/m 0 min 0 min 0 W/m 9,7 km/h (2 Bft) 100,00 %
07.08.2019 03:22 18,8 C 17,8 C 17,8 C 89 % 1007,6 hPa 0,0 l/m 0 min 0 min 0 W/m 12,9 km/h (3 Bft) 97,87 %
07.08.2019 03:24 18,8 C 17,8 C 17,8 C 89 % 1007,6 hPa 0,0 l/m 0 min 0 min 0 W/m 9,7 km/h (2 Bft) 100,00 %
07.08.2019 03:26 18,8 C 17,2 C 17,8 C 89 % 1007,5 hPa 0,0 l/m 0 min 0 min 0 W/m 9,7 km/h (2 Bft) 100,00 %
07.08.2019 03:28 18,7 C 17,2 C 17,2 C 89 % 1007,5 hPa 0,0 l/m 0 min 0 min 0 W/m 9,7 km/h (2 Bft) 100,00 %
07.08.2019 03:30 18,7 C 17,2 C 17,2 C 89 % 1007,6 hPa 0,0 l/m 0 min 0 min 0 W/m 3,2 km/h (1 Bft) 100,00 %
07.08.2019 03:32 18,7 C 17,2 C 17,2 C 90 % 1007,5 hPa 0,0 l/m 0 min 0 min 0 W/m 3,2 km/h (1 Bft) 100,00 %
07.08.2019 03:34 18,7 C 17,2 C 17,2 C 90 % 1007,5 hPa 0,0 l/m 0 min 0 min 0 W/m 6,4 km/h (2 Bft) 100,00 %
07.08.2019 03:36 18,7 C 17,2 C 17,2 C 90 % 1007,5 hPa 0,0 l/m 0 min 0 min 0 W/m 3,2 km/h (1 Bft) 97,87 %
07.08.2019 03:38 18,7 C 17,2 C 17,2 C 90 % 1007,5 hPa 0,0 l/m 0 min 0 min 0 W/m 9,7 km/h (2 Bft) 97,87 %
07.08.2019 03:40 18,6 C 17,2 C 17,2 C 90 % 1007,4 hPa 0,0 l/m 0 min 0 min 0 W/m 9,7 km/h (2 Bft) 97,83 %
07.08.2019 03:42 18,6 C 17,2 C 17,2 C 89 % 1007,5 hPa 0,0 l/m 0 min 0 min 0 W/m 3,2 km/h (1 Bft) 100,00 %
07.08.2019 03:44 18,6 C 17,2 C 17,2 C 90 % 1007,4 hPa 0,0 l/m 0 min 0 min 0 W/m 3,2 km/h (1 Bft) 100,00 %
07.08.2019 03:46 18,6 C 17,2 C 17,2 C 90 % 1007,5 hPa 0,0 l/m 0 min 0 min 0 W/m 3,2 km/h (1 Bft) 100,00 %
07.08.2019 03:48 18,6 C 17,2 C 17,2 C 90 % 1007,5 hPa 0,0 l/m 0 min 0 min 0 W/m 6,4 km/h (2 Bft) 97,87 %
07.08.2019 03:50 18,6 C 17,2 C 17,2 C 90 % 1007,5 hPa 0,0 l/m 0 min 0 min 0 W/m 6,4 km/h (2 Bft) 97,87 %
07.08.2019 03:52 18,5 C 17,2 C 17,2 C 90 % 1007,5 hPa 0,0 l/m 0 min 0 min 0 W/m 3,2 km/h (1 Bft) 97,83 %
07.08.2019 03:54 18,5 C 17,2 C 17,2 C 90 % 1007,5 hPa 0,0 l/m 0 min 0 min 0 W/m 3,2 km/h (1 Bft) 100,00 %
07.08.2019 03:56 18,5 C 17,2 C 17,2 C 90 % 1007,6 hPa 0,0 l/m 0 min 0 min 0 W/m 9,7 km/h (2 Bft) 100,00 %
07.08.2019 03:58 18,5 C 17,2 C 17,2 C 90 % 1007,5 hPa 0,0 l/m 0 min 0 min 0 W/m 9,7 km/h (2 Bft) 95,74 %
07.08.2019 04:00 18,4 C 17,2 C 17,2 C 90 % 1007,5 hPa 0,0 l/m 0 min 0 min 0 W/m 9,7 km/h (2 Bft) 100,00 %
07.08.2019 04:02 18,4 C 17,2 C 17,2 C 90 % 1007,6 hPa 0,0 l/m 0 min 0 min 0 W/m 12,9 km/h (3 Bft) 100,00 %
07.08.2019 04:04 18,4 C 17,2 C 17,2 C 90 % 1007,6 hPa 0,0 l/m 0 min 0 min 0 W/m 9,7 km/h (2 Bft) 95,74 %
07.08.2019 04:06 18,4 C 17,2 C 17,2 C 90 % 1007,6 hPa 0,0 l/m 0 min 0 min 0 W/m 9,7 km/h (2 Bft) 100,00 %
07.08.2019 04:08 18,4 C 17,2 C 17,2 C 90 % 1007,6 hPa 0,0 l/m 0 min 0 min 0 W/m 12,9 km/h (3 Bft) 97,87 %
07.08.2019 04:10 18,4 C 17,2 C 17,2 C 90 % 1007,6 hPa 0,0 l/m 0 min 0 min 0 W/m 9,7 km/h (2 Bft) 100,00 %
07.08.2019 04:12 18,4 C 17,2 C 17,2 C 91 % 1007,6 hPa 0,0 l/m 0 min 0 min 0 W/m 9,7 km/h (2 Bft) 97,87 %
07.08.2019 04:14 18,4 C 17,2 C 17,2 C 91 % 1007,6 hPa 0,0 l/m 0 min 0 min 0 W/m 9,7 km/h (2 Bft) 100,00 %
07.08.2019 04:16 18,3 C 17,2 C 17,2 C 91 % 1007,7 hPa 0,0 l/m 0 min 0 min 0 W/m 9,7 km/h (2 Bft) 100,00 %
07.08.2019 04:18 18,3 C 17,2 C 17,2 C 91 % 1007,6 hPa 0,0 l/m 0 min 0 min 0 W/m 12,9 km/h (3 Bft) 100,00 %
07.08.2019 04:20 18,3 C 17,2 C 17,2 C 91 % 1007,6 hPa 0,0 l/m 0 min 0 min 0 W/m 6,4 km/h (2 Bft) 97,87 %
07.08.2019 04:22 18,3 C 17,2 C 17,2 C 91 % 1007,7 hPa 0,0 l/m 0 min 0 min 0 W/m 12,9 km/h (3 Bft) 97,83 %
07.08.2019 04:24 18,3 C 17,2 C 17,2 C 91 % 1007,6 hPa 0,0 l/m 0 min 0 min 0 W/m 12,9 km/h (3 Bft) 100,00 %
07.08.2019 04:26 18,3 C 17,2 C 17,2 C 91 % 1007,5 hPa 0,0 l/m 0 min 0 min 0 W/m 6,4 km/h (2 Bft) 97,87 %
07.08.2019 04:28 18,3 C 17,2 C 17,2 C 91 % 1007,6 hPa 0,0 l/m 0 min 0 min 0 W/m 6,4 km/h (2 Bft) 97,87 %
07.08.2019 04:30 18,3 C 17,2 C 17,2 C 91 % 1007,6 hPa 0,0 l/m 0 min 0 min 0 W/m 9,7 km/h (2 Bft) 97,87 %
07.08.2019 04:32 18,3 C 17,2 C 17,2 C 91 % 1007,6 hPa 0,0 l/m 0 min 0 min 0 W/m 6,4 km/h (2 Bft) 97,87 %
07.08.2019 04:34 18,3 C 17,2 C 17,2 C 91 % 1007,6 hPa 0,0 l/m 0 min 0 min 0 W/m 6,4 km/h (2 Bft) 97,83 %
07.08.2019 04:36 18,3 C 17,2 C 17,2 C 91 % 1007,6 hPa 0,0 l/m 0 min 0 min 0 W/m 3,2 km/h (1 Bft) 100,00 %
07.08.2019 04:38 18,3 C 17,2 C 17,2 C 91 % 1007,6 hPa 0,0 l/m 0 min 0 min 0 W/m 6,4 km/h (2 Bft) 100,00 %
07.08.2019 04:40 18,3 C 17,2 C 17,2 C 91 % 1007,5 hPa 0,0 l/m 0 min 0 min 0 W/m 12,9 km/h (3 Bft) 100,00 %
07.08.2019 04:42 18,3 C 17,2 C 17,2 C 91 % 1007,4 hPa 0,0 l/m 0 min 0 min 0 W/m 6,4 km/h (2 Bft) 97,87 %
07.08.2019 04:44 18,3 C 17,2 C 17,2 C 91 % 1007,5 hPa 0,0 l/m 0 min 0 min 0 W/m 6,4 km/h (2 Bft) 97,87 %
07.08.2019 04:46 18,3 C 17,2 C 17,2 C 91 % 1007,5 hPa 0,0 l/m 0 min 0 min 0 W/m 6,4 km/h (2 Bft) 100,00 %
07.08.2019 04:48 18,3 C 17,2 C 17,2 C 91 % 1007,4 hPa 0,0 l/m 0 min 0 min 0 W/m 3,2 km/h (1 Bft) 100,00 %
07.08.2019 04:50 18,3 C 17,2 C 17,2 C 91 % 1007,4 hPa 0,0 l/m 0 min 0 min 0 W/m 6,4 km/h (2 Bft) 91,49 %
07.08.2019 04:52 18,3 C 17,2 C 17,2 C 91 % 1007,4 hPa 0,0 l/m 0 min 0 min 0 W/m 6,4 km/h (2 Bft) 95,74 %
07.08.2019 04:54 18,3 C 17,2 C 17,2 C 91 % 1007,4 hPa 0,0 l/m 0 min 0 min 0 W/m 6,4 km/h (2 Bft) 93,62 %
07.08.2019 04:56 18,3 C 17,2 C 17,2 C 91 % 1007,4 hPa 0,0 l/m 0 min 0 min 0 W/m 6,4 km/h (2 Bft) 95,65 %
07.08.2019 04:58 18,2 C 17,2 C 17,2 C 91 % 1007,4 hPa 0,0 l/m 0 min 0 min 0 W/m 9,7 km/h (2 Bft) 93,62 %
07.08.2019 05:00 18,2 C 17,2 C 17,2 C 91 % 1007,4 hPa 0,0 l/m 0 min 0 min 0 W/m 12,9 km/h (3 Bft) 93,62 %
07.08.2019 05:02 18,2 C 17,2 C 17,2 C 91 % 1007,4 hPa 0,0 l/m 0 min 0 min 0 W/m 9,7 km/h (2 Bft) 95,74 %
07.08.2019 05:04 18,2 C 17,2 C 17,2 C 91 % 1007,5 hPa 0,0 l/m 0 min 0 min 0 W/m 9,7 km/h (2 Bft) 95,74 %
07.08.2019 05:06 18,2 C 17,2 C 17,2 C 91 % 1007,5 hPa 0,0 l/m 0 min 0 min 0 W/m 9,7 km/h (2 Bft) 93,62 %
07.08.2019 05:08 18,2 C 17,2 C 17,2 C 91 % 1007,5 hPa 0,0 l/m 0 min 0 min 0 W/m 16,1 km/h (3 Bft) 95,65 %
07.08.2019 05:10 18,2 C 17,2 C 17,2 C 91 % 1007,4 hPa 0,0 l/m 0 min 0 min 0 W/m 12,9 km/h (3 Bft) 93,62 %
07.08.2019 05:12 18,2 C 17,2 C 17,2 C 91 % 1007,5 hPa 0,0 l/m 0 min 0 min 0 W/m 16,1 km/h (3 Bft) 95,74 %
07.08.2019 05:14 18,2 C 17,2 C 17,2 C 91 % 1007,4 hPa 0,0 l/m 0 min 0 min 0 W/m 9,7 km/h (2 Bft) 95,74 %
07.08.2019 05:16 18,1 C 17,2 C 17,2 C 91 % 1007,5 hPa 0,0 l/m 0 min 0 min 0 W/m 9,7 km/h (2 Bft) 93,62 %
07.08.2019 05:18 18,1 C 17,2 C 17,2 C 91 % 1007,4 hPa 0,0 l/m 0 min 0 min 0 W/m 12,9 km/h (3 Bft) 93,62 %
07.08.2019 05:20 18,1 C 16,7 C 16,7 C 91 % 1007,5 hPa 0,0 l/m 0 min 0 min 0 W/m 6,4 km/h (2 Bft) 93,48 %
07.08.2019 05:22 18,1 C 16,7 C 16,7 C 91 % 1007,4 hPa 0,0 l/m 0 min 0 min 0 W/m 6,4 km/h (2 Bft) 95,74 %
07.08.2019 05:24 18,1 C 16,7 C 16,7 C 91 % 1007,4 hPa 0,0 l/m 0 min 0 min 0 W/m 9,7 km/h (2 Bft) 93,62 %
07.08.2019 05:26 18,1 C 16,7 C 16,7 C 91 % 1007,5 hPa 0,0 l/m 0 min 0 min 0 W/m 9,7 km/h (2 Bft) 93,62 %
07.08.2019 05:28 18,1 C 16,7 C 16,7 C 91 % 1007,5 hPa 0,0 l/m 0 min 0 min 0 W/m 6,4 km/h (2 Bft) 93,62 %
07.08.2019 05:30 18,1 C 16,7 C 16,7 C 91 % 1007,5 hPa 0,0 l/m 0 min 0 min 0 W/m 3,2 km/h (1 Bft) 95,74 %
07.08.2019 05:32 18,0 C 16,7 C 16,7 C 91 % 1007,5 hPa 0,0 l/m 0 min 0 min 0 W/m 3,2 km/h (1 Bft) 95,65 %
07.08.2019 05:34 18,0 C 16,7 C 16,7 C 91 % 1007,5 hPa 0,0 l/m 0 min 0 min 0 W/m 9,7 km/h (2 Bft) 93,62 %
07.08.2019 05:36 18,0 C 16,7 C 16,7 C 91 % 1007,4 hPa 0,0 l/m 0 min 0 min 0 W/m 6,4 km/h (2 Bft) 93,62 %
07.08.2019 05:38 17,9 C 16,7 C 16,7 C 91 % 1007,4 hPa 0,0 l/m 0 min 0 min 0 W/m 3,2 km/h (1 Bft) 95,74 %
07.08.2019 05:40 17,9 C 16,7 C 16,7 C 91 % 1007,4 hPa 0,0 l/m 0 min 0 min 0 W/m 3,2 km/h (1 Bft) 93,62 %
07.08.2019 05:42 17,9 C 16,7 C 16,7 C 91 % 1007,5 hPa 0,0 l/m 0 min 0 min 0 W/m 3,2 km/h (1 Bft) 95,74 %
07.08.2019 05:44 17,9 C 16,1 C 16,7 C 91 % 1007,5 hPa 0,0 l/m 0 min 0 min 0 W/m 6,4 km/h (2 Bft) 93,48 %
07.08.2019 05:46 17,9 C 16,1 C 16,7 C 91 % 1007,5 hPa 0,0 l/m 0 min 0 min 0 W/m 6,4 km/h (2 Bft) 97,87 %
07.08.2019 05:48 17,8 C 16,7 C 16,7 C 91 % 1007,6 hPa 0,0 l/m 0 min 0 min 0 W/m 9,7 km/h (2 Bft) 97,87 %
07.08.2019 05:50 17,8 C 16,7 C 16,7 C 91 % 1007,6 hPa 0,0 l/m 0 min 0 min 0 W/m 6,4 km/h (2 Bft) 93,62 %
07.08.2019 05:52 17,8 C 16,7 C 16,7 C 91 % 1007,7 hPa 0,0 l/m 0 min 0 min 0 W/m 6,4 km/h (2 Bft) 97,87 %
07.08.2019 05:54 17,7 C 16,7 C 16,7 C 91 % 1007,6 hPa 0,0 l/m 0 min 0 min 0 W/m 0,0 km/h (0 Bft) 97,87 %
07.08.2019 05:56 17,7 C 16,1 C 16,7 C 91 % 1007,6 hPa 0,0 l/m 0 min 0 min 0 W/m 0,0 km/h (0 Bft) 97,83 %
07.08.2019 05:58 17,7 C 16,1 C 16,7 C 91 % 1007,7 hPa 0,0 l/m 0 min 0 min 0 W/m 0,0 km/h (0 Bft) 95,74 %
07.08.2019 06:00 17,7 C 16,1 C 16,1 C 91 % 1007,7 hPa 0,0 l/m 0 min 0 min 0 W/m 9,7 km/h (2 Bft) 95,74 %
07.08.2019 06:02 17,6 C 16,1 C 16,7 C 91 % 1007,7 hPa 0,0 l/m 0 min 0 min 0 W/m 3,2 km/h (1 Bft) 95,74 %
07.08.2019 06:04 17,6 C 16,1 C 16,1 C 91 % 1007,8 hPa 0,0 l/m 0 min 0 min 0 W/m 6,4 km/h (2 Bft) 95,74 %
07.08.2019 06:08 17,6 C 16,1 C 16,1 C 91 % 1007,8 hPa 0,0 l/m 0 min 0 min 0 W/m 6,4 km/h (2 Bft) 94,62 %
07.08.2019 06:10 17,6 C 16,1 C 16,1 C 91 % 1007,8 hPa 0,0 l/m 0 min 0 min 0 W/m 6,4 km/h (2 Bft) 97,87 %
07.08.2019 06:12 17,5 C 16,1 C 16,7 C 91 % 1007,8 hPa 0,0 l/m 0 min 0 min 0 W/m 3,2 km/h (1 Bft) 97,87 %
07.08.2019 06:14 17,4 C 16,1 C 16,7 C 91 % 1007,8 hPa 0,0 l/m 0 min 0 min 0 W/m 6,4 km/h (2 Bft) 95,74 %
07.08.2019 06:16 17,4 C 16,7 C 16,7 C 91 % 1007,8 hPa 0,0 l/m 0 min 0 min 0 W/m 9,7 km/h (2 Bft) 95,74 %
07.08.2019 06:18 17,4 C 16,7 C 16,7 C 91 % 1007,8 hPa 0,0 l/m 0 min 0 min 0 W/m 6,4 km/h (2 Bft) 97,83 %
07.08.2019 06:20 17,4 C 16,7 C 16,7 C 91 % 1007,8 hPa 0,0 l/m 0 min 0 min 0 W/m 6,4 km/h (2 Bft) 95,74 %
07.08.2019 06:22 17,4 C 16,1 C 16,7 C 91 % 1007,8 hPa 0,0 l/m 0 min 0 min 4 W/m 6,4 km/h (2 Bft) 97,87 %
07.08.2019 06:24 17,4 C 16,7 C 16,7 C 91 % 1007,8 hPa 0,0 l/m 0 min 0 min 5 W/m 6,4 km/h (2 Bft) 97,87 %
07.08.2019 06:26 17,3 C 16,7 C 16,7 C 91 % 1007,8 hPa 0,0 l/m 0 min 0 min 7 W/m 6,4 km/h (2 Bft) 97,87 %
07.08.2019 06:28 17,3 C 16,7 C 16,7 C 91 % 1007,8 hPa 0,0 l/m 0 min 0 min 8 W/m 3,2 km/h (1 Bft) 97,87 %
07.08.2019 06:30 17,3 C 16,1 C 16,7 C 91 % 1007,8 hPa 0,0 l/m 0 min 0 min 9 W/m 3,2 km/h (1 Bft) 97,83 %
07.08.2019 06:32 17,3 C 16,1 C 16,7 C 91 % 1007,8 hPa 0,0 l/m 0 min 0 min 10 W/m 6,4 km/h (2 Bft) 91,49 %
07.08.2019 06:34 17,3 C 16,7 C 16,7 C 91 % 1007,8 hPa 0,0 l/m 0 min 0 min 11 W/m 6,4 km/h (2 Bft) 100,00 %
07.08.2019 06:36 17,3 C 16,7 C 16,7 C 91 % 1007,8 hPa 0,0 l/m 0 min 0 min 12 W/m 6,4 km/h (2 Bft) 95,74 %
07.08.2019 06:38 17,3 C 16,7 C 16,7 C 91 % 1007,8 hPa 0,0 l/m 0 min 0 min 12 W/m 9,7 km/h (2 Bft) 97,87 %
07.08.2019 06:40 17,3 C 16,7 C 16,7 C 91 % 1007,7 hPa 0,0 l/m 0 min 0 min 12 W/m 6,4 km/h (2 Bft) 97,87 %
07.08.2019 06:42 17,3 C 16,7 C 16,1 C 91 % 1007,8 hPa 0,0 l/m 0 min 0 min 12 W/m 6,4 km/h (2 Bft) 100,00 %
07.08.2019 06:44 17,3 C 16,7 C 16,1 C 91 % 1007,8 hPa 0,0 l/m 0 min 0 min 13 W/m 9,7 km/h (2 Bft) 97,87 %
07.08.2019 06:46 17,3 C 16,7 C 16,7 C 91 % 1007,9 hPa 0,0 l/m 0 min 0 min 14 W/m 9,7 km/h (2 Bft) 97,87 %
07.08.2019 06:48 17,3 C 16,7 C 16,7 C 91 % 1007,8 hPa 0,0 l/m 0 min 0 min 14 W/m 6,4 km/h (2 Bft) 100,00 %
07.08.2019 06:50 17,3 C 16,7 C 16,7 C 91 % 1007,8 hPa 0,0 l/m 0 min 0 min 15 W/m 6,4 km/h (2 Bft) 100,00 %
07.08.2019 06:52 17,3 C 16,7 C 16,7 C 91 % 1007,8 hPa 0,0 l/m 0 min 0 min 16 W/m 3,2 km/h (1 Bft) 100,00 %
07.08.2019 06:54 17,3 C 16,7 C 16,7 C 91 % 1007,8 hPa 0,0 l/m 0 min 0 min 16 W/m 3,2 km/h (1 Bft) 100,00 %
07.08.2019 06:56 17,3 C 16,7 C 16,1 C 91 % 1007,8 hPa 0,0 l/m 0 min 0 min 16 W/m 6,4 km/h (2 Bft) 100,00 %
07.08.2019 06:58 17,3 C 16,7 C 16,1 C 91 % 1007,7 hPa 0,0 l/m 0 min 0 min 16 W/m 9,7 km/h (2 Bft) 100,00 %
07.08.2019 07:00 17,3 C 16,7 C 16,1 C 91 % 1007,8 hPa 0,0 l/m 0 min 0 min 18 W/m 6,4 km/h (2 Bft) 100,00 %
07.08.2019 07:02 17,3 C 16,7 C 16,1 C 91 % 1007,7 hPa 0,0 l/m 0 min 0 min 19 W/m 9,7 km/h (2 Bft) 100,00 %
07.08.2019 07:04 17,3 C 16,7 C 16,1 C 91 % 1007,7 hPa 0,0 l/m 0 min 0 min 20 W/m 6,4 km/h (2 Bft) 100,00 %
07.08.2019 07:06 17,3 C 16,7 C 16,1 C 91 % 1007,7 hPa 0,0 l/m 0 min 0 min 21 W/m 6,4 km/h (2 Bft) 95,74 %
07.08.2019 07:08 17,3 C 16,7 C 16,1 C 91 % 1007,8 hPa 0,0 l/m 0 min 0 min 24 W/m 6,4 km/h (2 Bft) 100,00 %
07.08.2019 07:10 17,3 C 16,7 C 16,1 C 91 % 1007,7 hPa 0,0 l/m 0 min 0 min 26 W/m 6,4 km/h (2 Bft) 97,87 %
07.08.2019 07:12 17,3 C 16,7 C 16,7 C 91 % 1007,7 hPa 0,0 l/m 0 min 0 min 30 W/m 6,4 km/h (2 Bft) 100,00 %
07.08.2019 07:14 17,3 C 16,7 C 16,7 C 91 % 1007,6 hPa 0,0 l/m 0 min 0 min 36 W/m 9,7 km/h (2 Bft) 100,00 %
07.08.2019 07:16 17,3 C 16,7 C 16,7 C 91 % 1007,7 hPa 0,0 l/m 0 min 0 min 42 W/m 3,2 km/h (1 Bft) 100,00 %
07.08.2019 07:18 17,3 C 16,7 C 16,7 C 91 % 1007,7 hPa 0,0 l/m 0 min 0 min 40 W/m 6,4 km/h (2 Bft) 100,00 %
07.08.2019 07:20 17,3 C 16,7 C 16,7 C 91 % 1007,8 hPa 0,0 l/m 0 min 0 min 40 W/m 6,4 km/h (2 Bft) 100,00 %
07.08.2019 07:22 17,3 C 17,2 C 16,7 C 91 % 1007,8 hPa 0,0 l/m 0 min 0 min 43 W/m 9,7 km/h (2 Bft) 100,00 %
07.08.2019 07:24 17,3 C 16,7 C 16,7 C 91 % 1007,8 hPa 0,0 l/m 0 min 0 min 46 W/m 9,7 km/h (2 Bft) 100,00 %
07.08.2019 07:26 17,3 C 16,7 C 16,7 C 91 % 1007,8 hPa 0,0 l/m 0 min 0 min 46 W/m 9,7 km/h (2 Bft) 100,00 %
07.08.2019 07:28 17,3 C 17,2 C 16,7 C 91 % 1007,9 hPa 0,0 l/m 0 min 0 min 46 W/m 6,4 km/h (2 Bft) 100,00 %
07.08.2019 07:30 17,3 C 17,2 C 16,7 C 91 % 1007,9 hPa 0,0 l/m 0 min 0 min 46 W/m 9,7 km/h (2 Bft) 97,87 %
07.08.2019 07:32 17,3 C 17,2 C 16,7 C 91 % 1007,9 hPa 0,0 l/m 0 min 0 min 43 W/m 6,4 km/h (2 Bft) 95,74 %
07.08.2019 07:34 17,3 C 17,2 C 16,7 C 91 % 1007,9 hPa 0,0 l/m 0 min 0 min 42 W/m 12,9 km/h (3 Bft) 95,74 %
07.08.2019 07:36 17,3 C 17,2 C 16,7 C 91 % 1007,8 hPa 0,0 l/m 0 min 0 min 41 W/m 9,7 km/h (2 Bft) 97,87 %
07.08.2019 07:38 17,3 C 17,2 C 16,7 C 91 % 1007,8 hPa 0,0 l/m 0 min 0 min 42 W/m 6,4 km/h (2 Bft) 95,74 %
07.08.2019 07:40 17,3 C 17,2 C 16,7 C 91 % 1007,9 hPa 0,0 l/m 0 min 0 min 45 W/m 9,7 km/h (2 Bft) 95,65 %
07.08.2019 07:42 17,3 C 17,2 C 16,7 C 91 % 1007,8 hPa 0,0 l/m 0 min 0 min 49 W/m 6,4 km/h (2 Bft) 97,87 %
07.08.2019 07:44 17,3 C 17,2 C 16,7 C 90 % 1007,7 hPa 0,0 l/m 0 min 0 min 53 W/m 3,2 km/h (1 Bft) 97,87 %
07.08.2019 07:46 17,3 C 17,2 C 16,7 C 90 % 1007,8 hPa 0,0 l/m 0 min 0 min 59 W/m 9,7 km/h (2 Bft) 93,62 %
07.08.2019 07:48 17,3 C 17,2 C 16,7 C 90 % 1007,7 hPa 0,0 l/m 0 min 0 min 66 W/m 6,4 km/h (2 Bft) 95,74 %
07.08.2019 07:50 17,3 C 17,8 C 17,2 C 90 % 1007,6 hPa 0,0 l/m 0 min 0 min 74 W/m 6,4 km/h (2 Bft) 97,87 %
07.08.2019 07:52 17,3 C 17,8 C 17,2 C 90 % 1007,7 hPa 0,0 l/m 0 min 0 min 76 W/m 6,4 km/h (2 Bft) 91,30 %
07.08.2019 07:54 17,3 C 17,8 C 17,2 C 90 % 1007,7 hPa 0,0 l/m 0 min 0 min 75 W/m 9,7 km/h (2 Bft) 95,74 %
07.08.2019 07:56 17,3 C 17,8 C 17,2 C 90 % 1007,7 hPa 0,0 l/m 0 min 0 min 72 W/m 6,4 km/h (2 Bft) 93,62 %
07.08.2019 07:58 17,3 C 17,8 C 17,2 C 89 % 1007,8 hPa 0,0 l/m 0 min 0 min 75 W/m 12,9 km/h (3 Bft) 95,74 %
07.08.2019 08:00 17,4 C 17,8 C 17,2 C 89 % 1007,7 hPa 0,0 l/m 0 min 0 min 74 W/m 9,7 km/h (2 Bft) 95,74 %
07.08.2019 08:02 17,4 C 17,8 C 17,2 C 89 % 1007,8 hPa 0,0 l/m 0 min 0 min 73 W/m 9,7 km/h (2 Bft) 95,74 %
07.08.2019 08:04 17,4 C 17,8 C 17,2 C 89 % 1007,7 hPa 0,0 l/m 0 min 0 min 72 W/m 9,7 km/h (2 Bft) 95,65 %
07.08.2019 08:06 17,4 C 17,8 C 17,2 C 89 % 1007,7 hPa 0,0 l/m 0 min 0 min 76 W/m 12,9 km/h (3 Bft) 95,74 %
07.08.2019 08:08 17,5 C 17,8 C 17,2 C 89 % 1007,7 hPa 0,0 l/m 0 min 0 min 85 W/m 6,4 km/h (2 Bft) 95,74 %
07.08.2019 08:10 17,5 C 17,8 C 17,2 C 89 % 1007,7 hPa 0,0 l/m 0 min 0 min 102 W/m 9,7 km/h (2 Bft) 93,62 %
07.08.2019 08:12 17,6 C 18,3 C 17,8 C 89 % 1007,7 hPa 0,0 l/m 0 min 0 min 123 W/m 9,7 km/h (2 Bft) 93,62 %
07.08.2019 08:14 17,6 C 18,3 C 17,8 C 89 % 1007,8 hPa 0,0 l/m 0 min 0 min 137 W/m 19,3 km/h (3 Bft) 95,65 %
07.08.2019 08:16 17,6 C 18,9 C 17,8 C 88 % 1007,8 hPa 0,0 l/m 0 min 0 min 149 W/m 12,9 km/h (3 Bft) 97,87 %
07.08.2019 08:18 17,7 C 18,9 C 18,3 C 88 % 1007,8 hPa 0,0 l/m 0 min 0 min 148 W/m 19,3 km/h (3 Bft) 97,87 %
07.08.2019 08:20 17,7 C 18,9 C 18,3 C 88 % 1007,7 hPa 0,0 l/m 0 min 0 min 142 W/m 12,9 km/h (3 Bft) 97,87 %
07.08.2019 08:22 17,8 C 18,9 C 18,3 C 88 % 1007,7 hPa 0,0 l/m 0 min 0 min 128 W/m 12,9 km/h (3 Bft) 97,87 %
07.08.2019 08:24 17,8 C 18,9 C 18,3 C 87 % 1007,8 hPa 0,0 l/m 0 min 0 min 118 W/m 16,1 km/h (3 Bft) 97,87 %
07.08.2019 08:26 17,9 C 18,9 C 18,3 C 87 % 1007,8 hPa 0,0 l/m 0 min 0 min 110 W/m 22,5 km/h (4 Bft) 97,83 %
07.08.2019 08:28 17,9 C 18,9 C 18,3 C 87 % 1007,7 hPa 0,0 l/m 0 min 0 min 116 W/m 12,9 km/h (3 Bft) 95,74 %
07.08.2019 08:30 18,0 C 18,9 C 18,3 C 86 % 1007,7 hPa 0,0 l/m 0 min 0 min 125 W/m 12,9 km/h (3 Bft) 97,87 %
07.08.2019 08:32 18,1 C 18,9 C 18,3 C 86 % 1007,7 hPa 0,0 l/m 0 min 0 min 119 W/m 25,7 km/h (4 Bft) 97,87 %
07.08.2019 08:34 18,2 C 19,4 C 18,3 C 85 % 1007,7 hPa 0,0 l/m 0 min 0 min 113 W/m 12,9 km/h (3 Bft) 97,87 %
07.08.2019 08:36 18,2 C 20,6 C 18,3 C 85 % 1007,6 hPa 0,0 l/m 0 min 0 min 140 W/m 6,4 km/h (2 Bft) 97,87 %
07.08.2019 08:38 18,3 C 21,1 C 18,9 C 85 % 1007,5 hPa 0,0 l/m 0 min 0 min 163 W/m 16,1 km/h (3 Bft) 97,83 %
07.08.2019 08:40 18,3 C 20,6 C 18,9 C 84 % 1007,6 hPa 0,0 l/m 0 min 0 min 126 W/m 16,1 km/h (3 Bft) 97,87 %
07.08.2019 08:42 18,4 C 20,6 C 18,9 C 84 % 1007,5 hPa 0,0 l/m 0 min 0 min 145 W/m 12,9 km/h (3 Bft) 100,00 %
07.08.2019 08:44 18,5 C 20,6 C 18,9 C 83 % 1007,5 hPa 0,0 l/m 0 min 0 min 140 W/m 9,7 km/h (2 Bft) 95,74 %
07.08.2019 08:46 18,6 C 20,6 C 18,9 C 83 % 1007,6 hPa 0,0 l/m 0 min 0 min 174 W/m 16,1 km/h (3 Bft) 97,87 %
07.08.2019 08:48 18,7 C 20,6 C 18,9 C 82 % 1007,7 hPa 0,0 l/m 2 min 0 min 216 W/m 9,7 km/h (2 Bft) 100,00 %
07.08.2019 08:50 18,8 C 21,7 C 18,9 C 82 % 1007,6 hPa 0,0 l/m 2 min 0 min 200 W/m 16,1 km/h (3 Bft) 100,00 %
07.08.2019 08:52 18,9 C 22,8 C 19,4 C 81 % 1007,6 hPa 0,0 l/m 2 min 0 min 316 W/m 16,1 km/h (3 Bft) 95,74 %
07.08.2019 08:54 19,0 C 22,8 C 20,0 C 81 % 1007,6 hPa 0,0 l/m 2 min 0 min 374 W/m 9,7 km/h (2 Bft) 97,87 %
07.08.2019 08:56 19,1 C 21,7 C 19,4 C 81 % 1007,6 hPa 0,0 l/m 0 min 0 min 179 W/m 16,1 km/h (3 Bft) 97,87 %
07.08.2019 08:58 19,2 C 22,2 C 19,4 C 81 % 1007,6 hPa 0,0 l/m 2 min 0 min 318 W/m 6,4 km/h (2 Bft) 97,87 %
07.08.2019 09:00 19,3 C 22,2 C 19,4 C 80 % 1007,6 hPa 0,0 l/m 2 min 0 min 362 W/m 22,5 km/h (4 Bft) 97,83 %
07.08.2019 09:02 19,4 C 23,3 C 20,0 C 80 % 1007,5 hPa 0,0 l/m 2 min 0 min 488 W/m 9,7 km/h (2 Bft) 97,87 %
07.08.2019 09:04 19,6 C 23,9 C 20,6 C 80 % 1007,5 hPa 0,0 l/m 2 min 0 min 462 W/m 16,1 km/h (3 Bft) 95,74 %
07.08.2019 09:06 19,7 C 23,9 C 20,6 C 79 % 1007,5 hPa 0,0 l/m 2 min 0 min 480 W/m 9,7 km/h (2 Bft) 95,74 %
07.08.2019 09:08 19,8 C 23,3 C 20,6 C 79 % 1007,7 hPa 0,0 l/m 2 min 0 min 390 W/m 16,1 km/h (3 Bft) 95,74 %
07.08.2019 09:10 19,9 C 22,2 C 20,6 C 78 % 1007,6 hPa 0,0 l/m 2 min 0 min 249 W/m 19,3 km/h (3 Bft) 97,87 %
07.08.2019 09:12 20,0 C 22,2 C 21,1 C 77 % 1007,6 hPa 0,0 l/m 0 min 0 min 206 W/m 12,9 km/h (3 Bft) 97,83 %
07.08.2019 09:14 20,1 C 22,2 C 21,7 C 77 % 1007,6 hPa 0,0 l/m 2 min 0 min 338 W/m 12,9 km/h (3 Bft) 95,74 %
07.08.2019 09:16 20,2 C 23,3 C 22,8 C 77 % 1007,6 hPa 0,0 l/m 2 min 0 min 271 W/m 9,7 km/h (2 Bft) 97,87 %
07.08.2019 09:18 20,3 C 23,9 C 23,9 C 77 % 1007,5 hPa 0,0 l/m 2 min 0 min 446 W/m 12,9 km/h (3 Bft) 97,87 %
07.08.2019 09:20 20,3 C 23,3 C 22,8 C 76 % 1007,5 hPa 0,0 l/m 2 min 0 min 424 W/m 9,7 km/h (2 Bft) 95,74 %
07.08.2019 09:22 20,4 C 22,8 C 22,8 C 76 % 1007,6 hPa 0,0 l/m 0 min 0 min 230 W/m 16,1 km/h (3 Bft) 97,87 %
07.08.2019 09:24 20,4 C 23,3 C 22,8 C 75 % 1007,6 hPa 0,0 l/m 2 min 0 min 499 W/m 19,3 km/h (3 Bft) 97,83 %
07.08.2019 09:26 20,4 C 23,3 C 22,8 C 74 % 1007,5 hPa 0,0 l/m 2 min 0 min 373 W/m 19,3 km/h (3 Bft) 97,87 %
07.08.2019 09:28 20,5 C 23,9 C 23,9 C 75 % 1007,5 hPa 0,0 l/m 2 min 0 min 489 W/m 12,9 km/h (3 Bft) 97,87 %
07.08.2019 09:30 20,6 C 23,3 C 22,8 C 74 % 1007,5 hPa 0,0 l/m 2 min 0 min 380 W/m 16,1 km/h (3 Bft) 97,87 %
07.08.2019 09:32 20,6 C 22,8 C 22,2 C 73 % 1007,5 hPa 0,0 l/m 2 min 0 min 346 W/m 12,9 km/h (3 Bft) 97,87 %
07.08.2019 09:34 20,6 C 22,2 C 22,2 C 73 % 1007,5 hPa 0,0 l/m 2 min 0 min 263 W/m 12,9 km/h (3 Bft) 95,74 %
07.08.2019 09:36 20,6 C 22,8 C 22,8 C 73 % 1007,6 hPa 0,0 l/m 2 min 0 min 349 W/m 22,5 km/h (4 Bft) 95,65 %
07.08.2019 09:38 20,6 C 23,3 C 23,3 C 73 % 1007,6 hPa 0,0 l/m 2 min 0 min 419 W/m 22,5 km/h (4 Bft) 97,87 %
07.08.2019 09:40 20,6 C 23,3 C 23,9 C 73 % 1007,5 hPa 0,0 l/m 2 min 0 min 445 W/m 12,9 km/h (3 Bft) 97,87 %
07.08.2019 09:42 20,6 C 23,3 C 23,3 C 73 % 1007,5 hPa 0,0 l/m 2 min 0 min 458 W/m 9,7 km/h (2 Bft) 97,87 %
07.08.2019 09:44 20,6 C 23,3 C 23,9 C 73 % 1007,5 hPa 0,0 l/m 2 min 0 min 457 W/m 16,1 km/h (3 Bft) 100,00 %
07.08.2019 09:46 20,6 C 23,3 C 23,9 C 73 % 1007,6 hPa 0,0 l/m 2 min 0 min 474 W/m 16,1 km/h (3 Bft) 100,00 %
07.08.2019 09:48 20,7 C 24,4 C 25,0 C 73 % 1007,6 hPa 0,0 l/m 2 min 0 min 495 W/m 16,1 km/h (3 Bft) 97,83 %
07.08.2019 09:50 20,7 C 24,4 C 25,0 C 73 % 1007,7 hPa 0,0 l/m 2 min 0 min 533 W/m 12,9 km/h (3 Bft) 100,00 %
07.08.2019 09:52 20,8 C 25,0 C 25,6 C 73 % 1007,6 hPa 0,0 l/m 2 min 0 min 547 W/m 16,1 km/h (3 Bft) 97,87 %
07.08.2019 09:54 20,9 C 24,4 C 25,0 C 72 % 1007,7 hPa 0,0 l/m 2 min 0 min 576 W/m 16,1 km/h (3 Bft) 100,00 %
07.08.2019 09:56 20,9 C 24,4 C 24,4 C 72 % 1007,6 hPa 0,0 l/m 2 min 0 min 589 W/m 12,9 km/h (3 Bft) 97,87 %
07.08.2019 09:58 21,0 C 24,4 C 25,0 C 72 % 1007,7 hPa 0,0 l/m 2 min 0 min 619 W/m 16,1 km/h (3 Bft) 97,87 %
07.08.2019 10:00 21,0 C 25,0 C 25,6 C 72 % 1007,6 hPa 0,0 l/m 2 min 0 min 649 W/m 6,4 km/h (2 Bft) 97,83 %
07.08.2019 10:02 21,1 C 25,0 C 25,0 C 72 % 1007,6 hPa 0,0 l/m 2 min 0 min 671 W/m 9,7 km/h (2 Bft) 97,87 %
07.08.2019 10:04 21,2 C 25,0 C 25,0 C 72 % 1007,6 hPa 0,0 l/m 2 min 0 min 718 W/m 9,7 km/h (2 Bft) 98,11 %
07.08.2019 10:06 21,3 C 26,1 C 25,6 C 72 % 1007,6 hPa 0,0 l/m 2 min 0 min 733 W/m 16,1 km/h (3 Bft) 97,87 %
07.08.2019 10:08 21,4 C 24,4 C 24,4 C 72 % 1007,6 hPa 0,0 l/m 2 min 0 min 493 W/m 12,9 km/h (3 Bft) 93,62 %
07.08.2019 10:10 21,5 C 23,9 C 23,9 C 71 % 1007,6 hPa 0,0 l/m 2 min 0 min 394 W/m 19,3 km/h (3 Bft) 100,00 %
07.08.2019 10:12 21,5 C 23,3 C 23,3 C 71 % 1007,7 hPa 0,0 l/m 2 min 0 min 388 W/m 25,7 km/h (4 Bft) 96,15 %
07.08.2019 10:14 21,5 C 22,8 C 22,8 C 70 % 1007,8 hPa 0,0 l/m 2 min 0 min 361 W/m 16,1 km/h (3 Bft) 97,87 %
07.08.2019 10:16 21,4 C 22,2 C 21,7 C 70 % 1007,6 hPa 0,0 l/m 0 min 0 min 288 W/m 16,1 km/h (3 Bft) 97,87 %
07.08.2019 10:18 21,3 C 21,7 C 21,1 C 69 % 1007,7 hPa 0,0 l/m 0 min 0 min 249 W/m 19,3 km/h (3 Bft) 97,87 %
07.08.2019 10:20 21,3 C 21,7 C 21,1 C 69 % 1007,7 hPa 0,0 l/m 0 min 0 min 223 W/m 19,3 km/h (3 Bft) 97,87 %
07.08.2019 10:22 21,2 C 21,1 C 21,1 C 68 % 1007,8 hPa 0,0 l/m 0 min 0 min 231 W/m 25,7 km/h (4 Bft) 97,83 %
07.08.2019 10:24 21,2 C 22,2 C 21,7 C 69 % 1007,7 hPa 0,0 l/m 0 min 0 min 267 W/m 16,1 km/h (3 Bft) 97,87 %
07.08.2019 10:26 21,2 C 22,2 C 21,7 C 69 % 1007,8 hPa 0,0 l/m 0 min 0 min 286 W/m 9,7 km/h (2 Bft) 97,87 %
07.08.2019 10:28 21,1 C 22,8 C 22,2 C 68 % 1007,8 hPa 0,0 l/m 2 min 0 min 310 W/m 22,5 km/h (4 Bft) 95,74 %
07.08.2019 10:30 21,1 C 22,8 C 22,2 C 68 % 1007,8 hPa 0,0 l/m 2 min 0 min 338 W/m 19,3 km/h (3 Bft) 97,87 %
07.08.2019 10:32 21,1 C 22,2 C 21,7 C 68 % 1007,9 hPa 0,0 l/m 2 min 0 min 312 W/m 16,1 km/h (3 Bft) 97,87 %
07.08.2019 10:34 21,1 C 22,2 C 21,7 C 68 % 1007,8 hPa 0,0 l/m 2 min 0 min 340 W/m 12,9 km/h (3 Bft) 95,65 %
07.08.2019 10:36 21,1 C 22,2 C 21,7 C 68 % 1007,8 hPa 0,0 l/m 2 min 0 min 313 W/m 9,7 km/h (2 Bft) 97,87 %
07.08.2019 10:38 21,1 C 22,2 C 21,7 C 69 % 1007,9 hPa 0,0 l/m 0 min 0 min 307 W/m 16,1 km/h (3 Bft) 97,87 %
07.08.2019 10:40 21,1 C 22,2 C 21,7 C 69 % 1007,8 hPa 0,0 l/m 2 min 0 min 332 W/m 19,3 km/h (3 Bft) 97,87 %
07.08.2019 10:42 21,1 C 22,2 C 21,7 C 69 % 1008,0 hPa 0,0 l/m 2 min 0 min 366 W/m 16,1 km/h (3 Bft) 100,00 %
07.08.2019 10:44 21,1 C 22,8 C 22,8 C 69 % 1007,9 hPa 0,0 l/m 2 min 0 min 409 W/m 19,3 km/h (3 Bft) 100,00 %
07.08.2019 10:46 21,1 C 23,9 C 23,9 C 69 % 1007,9 hPa 0,0 l/m 2 min 0 min 411 W/m 25,7 km/h (4 Bft) 95,65 %
07.08.2019 10:48 21,2 C 24,4 C 23,9 C 70 % 1007,9 hPa 0,0 l/m 2 min 0 min 398 W/m 16,1 km/h (3 Bft) 100,00 %
07.08.2019 10:50 21,3 C 24,4 C 24,4 C 69 % 1007,9 hPa 0,0 l/m 2 min 0 min 624 W/m 9,7 km/h (2 Bft) 100,00 %
07.08.2019 10:52 21,4 C 25,0 C 24,4 C 69 % 1008,0 hPa 0,0 l/m 2 min 0 min 550 W/m 9,7 km/h (2 Bft) 100,00 %
07.08.2019 10:54 21,5 C 25,0 C 25,0 C 69 % 1008,0 hPa 0,0 l/m 2 min 0 min 515 W/m 16,1 km/h (3 Bft) 97,87 %
07.08.2019 10:56 21,6 C 25,6 C 25,0 C 69 % 1008,0 hPa 0,0 l/m 2 min 0 min 379 W/m 12,9 km/h (3 Bft) 100,00 %
07.08.2019 10:58 21,7 C 24,4 C 24,4 C 68 % 1008,0 hPa 0,0 l/m 2 min 0 min 364 W/m 9,7 km/h (2 Bft) 100,00 %
07.08.2019 11:00 21,7 C 23,9 C 23,3 C 68 % 1008,1 hPa 0,0 l/m 0 min 0 min 314 W/m 9,7 km/h (2 Bft) 100,00 %
07.08.2019 11:02 21,8 C 23,9 C 23,3 C 67 % 1008,1 hPa 0,0 l/m 0 min 0 min 288 W/m 22,5 km/h (4 Bft) 100,00 %
07.08.2019 11:04 21,8 C 25,6 C 25,6 C 67 % 1008,1 hPa 0,0 l/m 0 min 0 min 288 W/m 12,9 km/h (3 Bft) 100,00 %
07.08.2019 11:06 21,9 C 26,1 C 26,1 C 67 % 1008,1 hPa 0,0 l/m 2 min 0 min 728 W/m 19,3 km/h (3 Bft) 100,00 %
07.08.2019 11:08 22,0 C 26,7 C 26,7 C 67 % 1008,2 hPa 0,0 l/m 2 min 0 min 722 W/m 16,1 km/h (3 Bft) 100,00 %
07.08.2019 11:10 22,1 C 27,2 C 27,2 C 67 % 1008,1 hPa 0,0 l/m 2 min 0 min 707 W/m 9,7 km/h (2 Bft) 100,00 %
07.08.2019 11:12 22,2 C 27,2 C 27,2 C 66 % 1008,1 hPa 0,0 l/m 2 min 0 min 718 W/m 16,1 km/h (3 Bft) 100,00 %
07.08.2019 11:14 22,3 C 26,7 C 26,7 C 66 % 1008,2 hPa 0,0 l/m 2 min 0 min 719 W/m 12,9 km/h (3 Bft) 100,00 %
07.08.2019 11:16 22,4 C 27,2 C 26,1 C 66 % 1008,2 hPa 0,0 l/m 2 min 0 min 726 W/m 16,1 km/h (3 Bft) 100,00 %
07.08.2019 11:18 22,5 C 26,1 C 25,6 C 65 % 1008,1 hPa 0,0 l/m 2 min 0 min 734 W/m 12,9 km/h (3 Bft) 100,00 %
07.08.2019 11:20 22,6 C 26,1 C 26,1 C 64 % 1008,1 hPa 0,0 l/m 2 min 0 min 738 W/m 16,1 km/h (3 Bft) 95,74 %
07.08.2019 11:22 22,6 C 27,2 C 27,2 C 64 % 1008,2 hPa 0,0 l/m 2 min 0 min 755 W/m 22,5 km/h (4 Bft) 100,00 %
07.08.2019 11:24 22,7 C 27,2 C 27,2 C 62 % 1008,2 hPa 0,0 l/m 2 min 0 min 744 W/m 19,3 km/h (3 Bft) 100,00 %
07.08.2019 11:26 22,8 C 26,7 C 26,1 C 61 % 1008,1 hPa 0,0 l/m 2 min 0 min 769 W/m 22,5 km/h (4 Bft) 100,00 %
07.08.2019 11:28 22,8 C 27,8 C 26,1 C 61 % 1008,1 hPa 0,0 l/m 2 min 0 min 774 W/m 19,3 km/h (3 Bft) 100,00 %
07.08.2019 11:30 22,9 C 27,2 C 25,0 C 61 % 1008,1 hPa 0,0 l/m 2 min 0 min 775 W/m 25,7 km/h (4 Bft) 95,74 %
07.08.2019 11:32 22,9 C 27,2 C 24,4 C 60 % 1008,0 hPa 0,0 l/m 2 min 0 min 790 W/m 19,3 km/h (3 Bft) 100,00 %
07.08.2019 11:34 23,0 C 27,2 C 24,4 C 61 % 1008,1 hPa 0,0 l/m 2 min 0 min 798 W/m 22,5 km/h (4 Bft) 100,00 %
07.08.2019 11:36 23,1 C 27,2 C 23,9 C 60 % 1008,0 hPa 0,0 l/m 2 min 0 min 802 W/m 19,3 km/h (3 Bft) 97,87 %
07.08.2019 11:38 23,2 C 27,2 C 23,9 C 59 % 1008,0 hPa 0,0 l/m 2 min 0 min 781 W/m 22,5 km/h (4 Bft) 97,87 %
07.08.2019 11:40 23,2 C 27,2 C 24,4 C 59 % 1008,0 hPa 0,0 l/m 2 min 0 min 738 W/m 19,3 km/h (3 Bft) 100,00 %
07.08.2019 11:42 23,3 C 27,2 C 25,6 C 58 % 1008,1 hPa 0,0 l/m 2 min 0 min 808 W/m 25,7 km/h (4 Bft) 95,74 %
07.08.2019 11:44 23,3 C 27,2 C 25,6 C 59 % 1008,1 hPa 0,0 l/m 2 min 0 min 835 W/m 12,9 km/h (3 Bft) 95,65 %
07.08.2019 11:46 23,3 C 27,2 C 24,4 C 59 % 1007,9 hPa 0,0 l/m 2 min 0 min 775 W/m 19,3 km/h (3 Bft) 97,87 %
07.08.2019 11:48 23,4 C 27,2 C 25,0 C 60 % 1007,9 hPa 0,0 l/m 2 min 0 min 657 W/m 9,7 km/h (2 Bft) 97,87 %
07.08.2019 11:50 23,5 C 27,2 C 24,4 C 60 % 1007,9 hPa 0,0 l/m 2 min 0 min 564 W/m 9,7 km/h (2 Bft) 97,87 %
07.08.2019 11:52 23,6 C 27,2 C 24,4 C 59 % 1007,9 hPa 0,0 l/m 2 min 0 min 658 W/m 12,9 km/h (3 Bft) 97,87 %
07.08.2019 11:54 23,6 C 26,7 C 24,4 C 58 % 1007,9 hPa 0,0 l/m 2 min 0 min 577 W/m 22,5 km/h (4 Bft) 97,87 %
07.08.2019 11:56 23,7 C 26,7 C 24,4 C 59 % 1007,9 hPa 0,0 l/m 2 min 0 min 700 W/m 16,1 km/h (3 Bft) 95,65 %
07.08.2019 11:58 23,7 C 27,2 C 24,4 C 58 % 1007,9 hPa 0,0 l/m 2 min 0 min 681 W/m 22,5 km/h (4 Bft) 93,62 %
07.08.2019 12:00 23,7 C 27,2 C 24,4 C 60 % 1007,8 hPa 0,0 l/m 2 min 0 min 628 W/m 16,1 km/h (3 Bft) 93,62 %
07.08.2019 12:02 23,8 C 27,8 C 25,0 C 58 % 1007,9 hPa 0,0 l/m 2 min 0 min 664 W/m 12,9 km/h (3 Bft) 93,62 %
07.08.2019 12:04 23,9 C 27,8 C 25,0 C 59 % 1007,8 hPa 0,0 l/m 2 min 0 min 798 W/m 12,9 km/h (3 Bft) 95,74 %
07.08.2019 12:08 24,1 C 28,9 C 25,6 C 57 % 1007,9 hPa 0,0 l/m 4 min 0 min 828 W/m 22,5 km/h (4 Bft) 95,70 %
07.08.2019 12:10 24,2 C 26,7 C 25,0 C 56 % 1007,8 hPa 0,0 l/m 2 min 0 min 799 W/m 29,0 km/h (5 Bft) 93,62 %
07.08.2019 12:12 24,3 C 27,2 C 25,0 C 56 % 1007,7 hPa 0,0 l/m 2 min 0 min 793 W/m 35,4 km/h (5 Bft) 93,62 %
07.08.2019 12:14 24,3 C 26,7 C 25,0 C 55 % 1007,7 hPa 0,0 l/m 2 min 0 min 747 W/m 19,3 km/h (3 Bft) 93,62 %
07.08.2019 12:16 24,3 C 26,7 C 25,0 C 55 % 1007,8 hPa 0,0 l/m 2 min 0 min 723 W/m 32,2 km/h (5 Bft) 95,74 %
07.08.2019 12:18 24,3 C 27,8 C 25,0 C 55 % 1007,9 hPa 0,0 l/m 2 min 0 min 617 W/m 19,3 km/h (3 Bft) 95,74 %
07.08.2019 12:20 24,4 C 27,8 C 25,0 C 55 % 1007,8 hPa 0,0 l/m 2 min 0 min 780 W/m 16,1 km/h (3 Bft) 95,65 %
07.08.2019 12:22 24,4 C 28,3 C 25,6 C 55 % 1007,7 hPa 0,0 l/m 2 min 0 min 775 W/m 19,3 km/h (3 Bft) 95,74 %
07.08.2019 12:24 24,5 C 28,3 C 25,6 C 55 % 1007,6 hPa 0,0 l/m 2 min 0 min 704 W/m 19,3 km/h (3 Bft) 93,62 %
07.08.2019 12:26 24,6 C 29,4 C 26,1 C 56 % 1007,7 hPa 0,0 l/m 2 min 0 min 584 W/m 12,9 km/h (3 Bft) 93,62 %
07.08.2019 12:28 24,8 C 29,4 C 26,1 C 55 % 1007,6 hPa 0,0 l/m 2 min 0 min 706 W/m 12,9 km/h (3 Bft) 97,87 %
07.08.2019 12:30 24,8 C 27,2 C 25,6 C 54 % 1007,8 hPa 0,0 l/m 2 min 0 min 758 W/m 41,8 km/h (6 Bft) 91,30 %
07.08.2019 12:32 24,9 C 27,8 C 25,6 C 54 % 1007,8 hPa 0,0 l/m 2 min 0 min 878 W/m 32,2 km/h (5 Bft) 91,49 %
07.08.2019 12:34 24,8 C 27,2 C 25,6 C 54 % 1007,8 hPa 0,0 l/m 2 min 0 min 839 W/m 29,0 km/h (5 Bft) 93,62 %
07.08.2019 12:36 24,8 C 27,2 C 25,0 C 54 % 1007,8 hPa 0,0 l/m 2 min 0 min 673 W/m 25,7 km/h (4 Bft) 93,18 %
07.08.2019 12:38 24,9 C 28,9 C 25,6 C 54 % 1007,8 hPa 0,0 l/m 2 min 0 min 886 W/m 25,7 km/h (4 Bft) 93,62 %
07.08.2019 12:40 24,9 C 29,4 C 25,6 C 54 % 1007,7 hPa 0,0 l/m 2 min 0 min 888 W/m 32,2 km/h (5 Bft) 93,62 %
07.08.2019 12:42 25,1 C 30,0 C 26,1 C 55 % 1007,6 hPa 0,0 l/m 2 min 0 min 853 W/m 16,1 km/h (3 Bft) 93,62 %
07.08.2019 12:44 25,1 C 30,0 C 26,1 C 55 % 1007,7 hPa 0,0 l/m 2 min 0 min 818 W/m 16,1 km/h (3 Bft) 95,74 %
07.08.2019 12:46 25,2 C 28,3 C 25,6 C 55 % 1007,7 hPa 0,0 l/m 2 min 0 min 884 W/m 19,3 km/h (3 Bft) 95,74 %
07.08.2019 12:48 25,3 C 28,9 C 26,1 C 54 % 1007,6 hPa 0,0 l/m 2 min 0 min 886 W/m 16,1 km/h (3 Bft) 93,48 %
07.08.2019 12:50 25,3 C 28,9 C 26,1 C 54 % 1007,7 hPa 0,0 l/m 2 min 0 min 898 W/m 22,5 km/h (4 Bft) 97,87 %
07.08.2019 12:52 25,3 C 27,2 C 25,6 C 54 % 1007,7 hPa 0,0 l/m 2 min 0 min 605 W/m 25,7 km/h (4 Bft) 97,87 %
07.08.2019 12:54 25,2 C 26,7 C 25,6 C 53 % 1007,6 hPa 0,0 l/m 2 min 0 min 605 W/m 22,5 km/h (4 Bft) 93,62 %
07.08.2019 12:56 25,2 C 26,1 C 25,6 C 54 % 1007,6 hPa 0,0 l/m 2 min 0 min 497 W/m 16,1 km/h (3 Bft) 97,87 %
07.08.2019 12:58 25,1 C 26,7 C 25,6 C 55 % 1007,5 hPa 0,0 l/m 0 min 0 min 389 W/m 16,1 km/h (3 Bft) 97,87 %
07.08.2019 13:00 25,1 C 27,8 C 26,1 C 55 % 1007,6 hPa 0,0 l/m 2 min 0 min 523 W/m 9,7 km/h (2 Bft) 97,83 %
07.08.2019 13:02 25,1 C 27,2 C 25,6 C 55 % 1007,5 hPa 0,0 l/m 2 min 0 min 749 W/m 16,1 km/h (3 Bft) 97,87 %
07.08.2019 13:04 25,1 C 26,7 C 25,6 C 55 % 1007,5 hPa 0,0 l/m 2 min 0 min 689 W/m 22,5 km/h (4 Bft) 97,87 %
07.08.2019 13:06 25,1 C 27,2 C 26,1 C 55 % 1007,5 hPa 0,0 l/m 2 min 0 min 549 W/m 6,4 km/h (2 Bft) 93,62 %
07.08.2019 13:08 25,1 C 26,7 C 26,1 C 56 % 1007,5 hPa 0,0 l/m 2 min 0 min 479 W/m 16,1 km/h (3 Bft) 97,96 %
07.08.2019 13:10 25,1 C 26,7 C 25,6 C 55 % 1007,6 hPa 0,0 l/m 0 min 0 min 351 W/m 19,3 km/h (3 Bft) 97,87 %
07.08.2019 13:12 25,1 C 27,2 C 26,1 C 56 % 1007,5 hPa 0,0 l/m 2 min 0 min 457 W/m 9,7 km/h (2 Bft) 100,00 %
07.08.2019 13:14 25,1 C 27,8 C 26,1 C 56 % 1007,6 hPa 0,0 l/m 2 min 0 min 544 W/m 9,7 km/h (2 Bft) 97,87 %
07.08.2019 13:16 25,1 C 27,2 C 26,1 C 57 % 1007,6 hPa 0,0 l/m 2 min 0 min 624 W/m 16,1 km/h (3 Bft) 100,00 %
07.08.2019 13:18 25,1 C 26,1 C 25,6 C 55 % 1007,5 hPa 0,0 l/m 2 min 0 min 501 W/m 12,9 km/h (3 Bft) 100,00 %
07.08.2019 13:20 25,1 C 26,1 C 25,6 C 55 % 1007,6 hPa 0,0 l/m 0 min 0 min 295 W/m 22,5 km/h (4 Bft) 100,00 %
07.08.2019 13:22 25,1 C 25,6 C 25,6 C 56 % 1007,5 hPa 0,0 l/m 0 min 0 min 346 W/m 16,1 km/h (3 Bft) 100,00 %
07.08.2019 13:24 24,9 C 25,6 C 25,6 C 55 % 1007,5 hPa 0,0 l/m 2 min 0 min 453 W/m 19,3 km/h (3 Bft) 100,00 %
07.08.2019 13:26 24,9 C 26,7 C 26,7 C 55 % 1007,6 hPa 0,0 l/m 2 min 0 min 651 W/m 19,3 km/h (3 Bft) 100,00 %
07.08.2019 13:28 24,8 C 26,7 C 26,7 C 55 % 1007,4 hPa 0,0 l/m 2 min 0 min 749 W/m 16,1 km/h (3 Bft) 100,00 %
07.08.2019 13:30 24,8 C 27,8 C 27,2 C 55 % 1007,4 hPa 0,0 l/m 2 min 0 min 705 W/m 12,9 km/h (3 Bft) 100,00 %
07.08.2019 13:32 24,9 C 29,4 C 28,3 C 56 % 1007,4 hPa 0,0 l/m 2 min 0 min 936 W/m 9,7 km/h (2 Bft) 100,00 %
07.08.2019 13:34 25,0 C 29,4 C 28,9 C 57 % 1007,3 hPa 0,0 l/m 2 min 0 min 733 W/m 9,7 km/h (2 Bft) 100,00 %
07.08.2019 13:36 25,1 C 27,8 C 27,8 C 56 % 1007,5 hPa 0,0 l/m 2 min 0 min 649 W/m 16,1 km/h (3 Bft) 97,87 %
07.08.2019 13:38 25,1 C 28,3 C 27,8 C 55 % 1007,5 hPa 0,0 l/m 2 min 0 min 680 W/m 32,2 km/h (5 Bft) 100,00 %
07.08.2019 13:40 25,2 C 27,8 C 28,3 C 55 % 1007,4 hPa 0,0 l/m 2 min 0 min 781 W/m 22,5 km/h (4 Bft) 100,00 %
07.08.2019 13:42 25,2 C 27,2 C 27,8 C 55 % 1007,4 hPa 0,0 l/m 2 min 0 min 680 W/m 25,7 km/h (4 Bft) 100,00 %
07.08.2019 13:44 25,1 C 26,7 C 26,7 C 54 % 1007,5 hPa 0,0 l/m 2 min 0 min 481 W/m 16,1 km/h (3 Bft) 100,00 %
07.08.2019 13:46 25,1 C 27,8 C 27,8 C 55 % 1007,5 hPa 0,0 l/m 2 min 0 min 504 W/m 16,1 km/h (3 Bft) 100,00 %
07.08.2019 13:48 25,1 C 27,8 C 27,8 C 55 % 1007,6 hPa 0,0 l/m 2 min 0 min 581 W/m 16,1 km/h (3 Bft) 100,00 %
07.08.2019 13:50 25,1 C 27,2 C 27,2 C 55 % 1007,3 hPa 0,0 l/m 2 min 0 min 656 W/m 25,7 km/h (4 Bft) 97,87 %
07.08.2019 13:52 25,1 C 27,8 C 27,8 C 55 % 1007,4 hPa 0,0 l/m 2 min 0 min 656 W/m 12,9 km/h (3 Bft) 97,83 %
07.08.2019 13:54 25,1 C 27,2 C 27,2 C 55 % 1007,5 hPa 0,0 l/m 2 min 0 min 656 W/m 22,5 km/h (4 Bft) 100,00 %
07.08.2019 13:56 25,1 C 27,2 C 27,2 C 55 % 1007,6 hPa 0,0 l/m 2 min 0 min 672 W/m 25,7 km/h (4 Bft) 100,00 %
07.08.2019 13:58 25,1 C 27,8 C 27,8 C 55 % 1007,5 hPa 0,0 l/m 2 min 0 min 711 W/m 16,1 km/h (3 Bft) 100,00 %
07.08.2019 14:00 25,1 C 27,2 C 27,8 C 55 % 1007,5 hPa 0,0 l/m 2 min 0 min 676 W/m 16,1 km/h (3 Bft) 100,00 %
07.08.2019 14:02 25,1 C 26,7 C 27,2 C 55 % 1007,4 hPa 0,0 l/m 2 min 0 min 648 W/m 29,0 km/h (5 Bft) 100,00 %
07.08.2019 14:04 25,1 C 27,8 C 27,2 C 56 % 1007,5 hPa 0,0 l/m 2 min 0 min 512 W/m 16,1 km/h (3 Bft) 97,83 %
07.08.2019 14:06 25,2 C 28,9 C 28,9 C 56 % 1007,4 hPa 0,0 l/m 2 min 0 min 713 W/m 19,3 km/h (3 Bft) 100,00 %
07.08.2019 14:08 25,2 C 27,8 C 27,8 C 55 % 1007,5 hPa 0,0 l/m 2 min 0 min 644 W/m 29,0 km/h (5 Bft) 100,00 %
07.08.2019 14:10 25,3 C 27,8 C 27,8 C 56 % 1007,2 hPa 0,0 l/m 2 min 0 min 480 W/m 12,9 km/h (3 Bft) 100,00 %
07.08.2019 14:12 25,3 C 27,8 C 27,8 C 55 % 1007,4 hPa 0,0 l/m 2 min 0 min 492 W/m 25,7 km/h (4 Bft) 100,00 %
07.08.2019 14:14 25,3 C 27,2 C 27,8 C 55 % 1007,2 hPa 0,0 l/m 2 min 0 min 698 W/m 19,3 km/h (3 Bft) 100,00 %
07.08.2019 14:16 25,3 C 27,2 C 27,2 C 55 % 1007,5 hPa 0,0 l/m 2 min 0 min 576 W/m 19,3 km/h (3 Bft) 100,00 %
07.08.2019 14:18 25,2 C 26,7 C 27,2 C 54 % 1007,3 hPa 0,0 l/m 2 min 0 min 531 W/m 19,3 km/h (3 Bft) 100,00 %
07.08.2019 14:20 25,2 C 27,2 C 27,2 C 56 % 1007,3 hPa 0,0 l/m 2 min 0 min 587 W/m 12,9 km/h (3 Bft) 100,00 %
07.08.2019 14:22 25,2 C 27,2 C 27,2 C 55 % 1007,3 hPa 0,0 l/m 2 min 0 min 625 W/m 16,1 km/h (3 Bft) 97,87 %
07.08.2019 14:24 25,2 C 27,2 C 26,7 C 55 % 1007,4 hPa 0,0 l/m 2 min 0 min 671 W/m 19,3 km/h (3 Bft) 100,00 %
07.08.2019 14:26 25,2 C 26,1 C 26,1 C 54 % 1007,3 hPa 0,0 l/m 0 min 0 min 349 W/m 16,1 km/h (3 Bft) 97,87 %
07.08.2019 14:28 25,1 C 27,2 C 26,1 C 55 % 1007,3 hPa 0,0 l/m 2 min 0 min 596 W/m 9,7 km/h (2 Bft) 97,83 %
07.08.2019 14:30 25,1 C 26,7 C 26,1 C 56 % 1007,4 hPa 0,0 l/m 2 min 0 min 561 W/m 12,9 km/h (3 Bft) 100,00 %
07.08.2019 14:32 25,1 C 26,1 C 25,6 C 55 % 1007,5 hPa 0,0 l/m 0 min 0 min 333 W/m 22,5 km/h (4 Bft) 100,00 %
07.08.2019 14:34 25,1 C 25,6 C 25,6 C 55 % 1007,4 hPa 0,0 l/m 0 min 0 min 303 W/m 12,9 km/h (3 Bft) 97,87 %
07.08.2019 14:36 25,1 C 25,6 C 25,0 C 57 % 1007,4 hPa 0,0 l/m 0 min 0 min 310 W/m 19,3 km/h (3 Bft) 97,87 %
07.08.2019 14:38 25,1 C 26,1 C 25,0 C 55 % 1007,4 hPa 0,0 l/m 0 min 0 min 318 W/m 16,1 km/h (3 Bft) 97,87 %
07.08.2019 14:40 25,1 C 27,2 C 25,6 C 56 % 1007,4 hPa 0,0 l/m 0 min 0 min 322 W/m 12,9 km/h (3 Bft) 100,00 %
07.08.2019 14:42 25,1 C 27,2 C 26,1 C 56 % 1007,5 hPa 0,0 l/m 0 min 0 min 322 W/m 9,7 km/h (2 Bft) 100,00 %
07.08.2019 14:44 25,1 C 28,3 C 26,1 C 56 % 1007,5 hPa 0,0 l/m 2 min 0 min 540 W/m 19,3 km/h (3 Bft) 97,87 %
07.08.2019 14:46 25,2 C 28,9 C 26,7 C 57 % 1007,5 hPa 0,0 l/m 2 min 0 min 671 W/m 16,1 km/h (3 Bft) 100,00 %
07.08.2019 14:48 25,3 C 28,3 C 26,7 C 56 % 1007,5 hPa 0,0 l/m 2 min 0 min 603 W/m 16,1 km/h (3 Bft) 100,00 %
07.08.2019 14:50 25,3 C 27,8 C 26,1 C 56 % 1007,5 hPa 0,0 l/m 2 min 0 min 582 W/m 12,9 km/h (3 Bft) 100,00 %
07.08.2019 14:52 25,3 C 28,3 C 26,1 C 54 % 1007,5 hPa 0,0 l/m 2 min 0 min 658 W/m 16,1 km/h (3 Bft) 97,83 %
07.08.2019 14:54 25,4 C 28,3 C 26,1 C 54 % 1007,5 hPa 0,0 l/m 2 min 0 min 725 W/m 12,9 km/h (3 Bft) 95,74 %
07.08.2019 14:56 25,4 C 27,8 C 26,1 C 54 % 1007,5 hPa 0,0 l/m 2 min 0 min 628 W/m 9,7 km/h (2 Bft) 100,00 %
07.08.2019 14:58 25,4 C 27,8 C 26,1 C 55 % 1007,6 hPa 0,0 l/m 2 min 0 min 647 W/m 12,9 km/h (3 Bft) 100,00 %
07.08.2019 15:00 25,6 C 28,9 C 26,7 C 55 % 1007,5 hPa 0,0 l/m 2 min 0 min 677 W/m 12,9 km/h (3 Bft) 100,00 %
07.08.2019 15:02 25,6 C 29,4 C 26,7 C 53 % 1007,4 hPa 0,0 l/m 2 min 0 min 833 W/m 22,5 km/h (4 Bft) 95,65 %
07.08.2019 15:04 25,6 C 28,9 C 26,7 C 53 % 1007,5 hPa 0,0 l/m 2 min 0 min 768 W/m 22,5 km/h (4 Bft) 95,74 %
07.08.2019 15:06 25,7 C 28,9 C 26,1 C 53 % 1007,6 hPa 0,0 l/m 2 min 0 min 709 W/m 22,5 km/h (4 Bft) 91,49 %
07.08.2019 15:08 25,7 C 28,3 C 26,1 C 54 % 1007,5 hPa 0,0 l/m 2 min 0 min 615 W/m 9,7 km/h (2 Bft) 94,34 %
07.08.2019 15:10 25,7 C 28,3 C 26,1 C 53 % 1007,5 hPa 0,0 l/m 2 min 0 min 643 W/m 22,5 km/h (4 Bft) 93,62 %
07.08.2019 15:12 25,7 C 28,3 C 26,1 C 52 % 1007,5 hPa 0,0 l/m 2 min 0 min 714 W/m 16,1 km/h (3 Bft) 93,62 %
07.08.2019 15:14 25,7 C 27,8 C 26,1 C 52 % 1007,5 hPa 0,0 l/m 2 min 0 min 830 W/m 22,5 km/h (4 Bft) 91,49 %
07.08.2019 15:16 25,7 C 27,8 C 25,6 C 53 % 1007,4 hPa 0,0 l/m 2 min 0 min 830 W/m 19,3 km/h (3 Bft) 93,48 %
07.08.2019 15:18 25,7 C 27,8 C 26,1 C 54 % 1007,5 hPa 0,0 l/m 2 min 0 min 830 W/m 12,9 km/h (3 Bft) 93,62 %
07.08.2019 15:20 25,7 C 27,8 C 26,1 C 54 % 1007,4 hPa 0,0 l/m 2 min 0 min 580 W/m 6,4 km/h (2 Bft) 91,49 %
07.08.2019 15:22 25,8 C 27,8 C 26,1 C 53 % 1007,4 hPa 0,0 l/m 2 min 0 min 537 W/m 16,1 km/h (3 Bft) 93,62 %
07.08.2019 15:24 25,7 C 27,2 C 26,1 C 52 % 1007,4 hPa 0,0 l/m 2 min 0 min 500 W/m 19,3 km/h (3 Bft) 93,62 %
07.08.2019 15:26 25,7 C 27,2 C 26,1 C 52 % 1007,4 hPa 0,0 l/m 0 min 0 min 352 W/m 9,7 km/h (2 Bft) 93,62 %
07.08.2019 15:28 25,7 C 27,2 C 26,1 C 52 % 1007,5 hPa 0,0 l/m 0 min 0 min 357 W/m 16,1 km/h (3 Bft) 93,48 %
07.08.2019 15:30 25,7 C 26,7 C 25,6 C 53 % 1007,4 hPa 0,0 l/m 0 min 0 min 322 W/m 16,1 km/h (3 Bft) 95,74 %
07.08.2019 15:32 25,7 C 26,1 C 25,6 C 53 % 1007,5 hPa 0,0 l/m 0 min 0 min 291 W/m 16,1 km/h (3 Bft) 93,62 %
07.08.2019 15:34 25,7 C 26,7 C 25,6 C 53 % 1007,5 hPa 0,0 l/m 0 min 0 min 290 W/m 19,3 km/h (3 Bft) 93,62 %
07.08.2019 15:36 25,7 C 27,8 C 25,6 C 53 % 1007,4 hPa 0,0 l/m 2 min 0 min 512 W/m 12,9 km/h (3 Bft) 91,43 %
07.08.2019 15:38 25,7 C 28,3 C 26,1 C 54 % 1007,4 hPa 0,0 l/m 2 min 0 min 691 W/m 16,1 km/h (3 Bft) 94,23 %
07.08.2019 15:40 25,7 C 28,3 C 26,1 C 53 % 1007,3 hPa 0,0 l/m 2 min 0 min 528 W/m 25,7 km/h (4 Bft) 91,49 %
07.08.2019 15:42 25,7 C 30,0 C 26,1 C 53 % 1007,4 hPa 0,0 l/m 2 min 0 min 703 W/m 12,9 km/h (3 Bft) 91,49 %
07.08.2019 15:44 25,8 C 28,9 C 26,1 C 53 % 1007,3 hPa 0,0 l/m 2 min 0 min 713 W/m 19,3 km/h (3 Bft) 93,62 %
07.08.2019 15:46 25,8 C 28,3 C 26,1 C 53 % 1007,4 hPa 0,0 l/m 2 min 0 min 584 W/m 19,3 km/h (3 Bft) 95,74 %
07.08.2019 15:48 25,9 C 28,3 C 26,1 C 52 % 1007,5 hPa 0,0 l/m 2 min 0 min 532 W/m 16,1 km/h (3 Bft) 95,65 %
07.08.2019 15:50 25,8 C 28,3 C 25,6 C 52 % 1007,5 hPa 0,0 l/m 2 min 0 min 610 W/m 12,9 km/h (3 Bft) 93,62 %
07.08.2019 15:52 25,8 C 27,8 C 25,6 C 52 % 1007,4 hPa 0,0 l/m 2 min 0 min 538 W/m 16,1 km/h (3 Bft) 95,74 %
07.08.2019 15:54 25,8 C 27,2 C 25,6 C 53 % 1007,4 hPa 0,0 l/m 2 min 0 min 529 W/m 16,1 km/h (3 Bft) 95,74 %
07.08.2019 15:56 25,8 C 27,2 C 25,6 C 52 % 1007,5 hPa 0,0 l/m 2 min 0 min 615 W/m 22,5 km/h (4 Bft) 95,74 %
07.08.2019 15:58 25,8 C 27,8 C 25,6 C 52 % 1007,5 hPa 0,0 l/m 2 min 0 min 637 W/m 16,1 km/h (3 Bft) 95,74 %
07.08.2019 16:00 25,8 C 27,8 C 26,1 C 53 % 1007,5 hPa 0,0 l/m 2 min 0 min 783 W/m 19,3 km/h (3 Bft) 93,48 %
07.08.2019 16:02 25,7 C 26,7 C 25,6 C 53 % 1007,5 hPa 0,0 l/m 2 min 0 min 582 W/m 9,7 km/h (2 Bft) 95,74 %
07.08.2019 16:04 25,7 C 26,1 C 25,6 C 53 % 1007,5 hPa 0,0 l/m 0 min 0 min 299 W/m 16,1 km/h (3 Bft) 100,00 %
07.08.2019 16:06 25,7 C 26,1 C 25,6 C 54 % 1007,4 hPa 0,0 l/m 0 min 0 min 315 W/m 25,7 km/h (4 Bft) 97,87 %
07.08.2019 16:08 25,6 C 28,3 C 25,6 C 54 % 1007,4 hPa 0,0 l/m 2 min 0 min 426 W/m 9,7 km/h (2 Bft) 97,87 %
07.08.2019 16:10 25,7 C 30,0 C 26,7 C 54 % 1007,5 hPa 0,0 l/m 2 min 0 min 695 W/m 9,7 km/h (2 Bft) 97,87 %
07.08.2019 16:12 25,8 C 31,1 C 27,2 C 54 % 1007,5 hPa 0,0 l/m 2 min 0 min 957 W/m 12,9 km/h (3 Bft) 100,00 %
07.08.2019 16:14 25,9 C 31,7 C 27,2 C 54 % 1007,5 hPa 0,0 l/m 2 min 0 min 920 W/m 9,7 km/h (2 Bft) 95,74 %
07.08.2019 16:16 26,1 C 32,2 C 27,2 C 54 % 1007,5 hPa 0,0 l/m 2 min 0 min 877 W/m 12,9 km/h (3 Bft) 100,00 %
07.08.2019 16:18 26,2 C 30,0 C 26,7 C 53 % 1007,6 hPa 0,0 l/m 2 min 0 min 725 W/m 12,9 km/h (3 Bft) 100,00 %
07.08.2019 16:20 26,3 C 28,3 C 26,1 C 52 % 1007,6 hPa 0,0 l/m 2 min 0 min 539 W/m 16,1 km/h (3 Bft) 100,00 %
07.08.2019 16:22 26,3 C 28,9 C 26,1 C 51 % 1007,6 hPa 0,0 l/m 2 min 0 min 856 W/m 19,3 km/h (3 Bft) 97,87 %
07.08.2019 16:24 26,3 C 27,8 C 26,1 C 51 % 1007,5 hPa 0,0 l/m 2 min 0 min 721 W/m 19,3 km/h (3 Bft) 100,00 %
07.08.2019 16:26 26,2 C 26,7 C 25,6 C 51 % 1007,5 hPa 0,0 l/m 0 min 0 min 265 W/m 16,1 km/h (3 Bft) 100,00 %
07.08.2019 16:28 26,2 C 26,1 C 25,6 C 51 % 1007,6 hPa 0,0 l/m 0 min 0 min 288 W/m 22,5 km/h (4 Bft) 100,00 %
07.08.2019 16:30 26,1 C 26,7 C 25,6 C 51 % 1007,6 hPa 0,0 l/m 2 min 0 min 361 W/m 29,0 km/h (5 Bft) 100,00 %
07.08.2019 16:32 26,0 C 27,2 C 25,6 C 52 % 1007,5 hPa 0,0 l/m 2 min 0 min 367 W/m 22,5 km/h (4 Bft) 97,87 %
07.08.2019 16:34 25,9 C 27,2 C 25,6 C 52 % 1007,5 hPa 0,0 l/m 2 min 0 min 362 W/m 16,1 km/h (3 Bft) 100,00 %
07.08.2019 16:36 25,9 C 26,7 C 25,6 C 52 % 1007,4 hPa 0,0 l/m 2 min 0 min 322 W/m 16,1 km/h (3 Bft) 100,00 %
07.08.2019 16:38 25,8 C 26,7 C 25,6 C 52 % 1007,5 hPa 0,0 l/m 2 min 0 min 333 W/m 12,9 km/h (3 Bft) 100,00 %
07.08.2019 16:40 25,8 C 26,1 C 25,0 C 52 % 1007,5 hPa 0,0 l/m 0 min 0 min 296 W/m 22,5 km/h (4 Bft) 100,00 %
07.08.2019 16:42 25,8 C 26,1 C 25,0 C 52 % 1007,5 hPa 0,0 l/m 0 min 0 min 272 W/m 12,9 km/h (3 Bft) 100,00 %
07.08.2019 16:44 25,7 C 26,1 C 25,6 C 53 % 1007,4 hPa 0,0 l/m 0 min 0 min 273 W/m 12,9 km/h (3 Bft) 100,00 %
07.08.2019 16:46 25,7 C 26,7 C 25,6 C 53 % 1007,5 hPa 0,0 l/m 2 min 0 min 325 W/m 12,9 km/h (3 Bft) 100,00 %
07.08.2019 16:48 25,7 C 27,2 C 25,6 C 53 % 1007,4 hPa 0,0 l/m 2 min 0 min 364 W/m 9,7 km/h (2 Bft) 100,00 %
07.08.2019 16:50 25,6 C 28,3 C 25,6 C 53 % 1007,4 hPa 0,0 l/m 2 min 0 min 374 W/m 12,9 km/h (3 Bft) 97,87 %
07.08.2019 16:52 25,7 C 29,4 C 26,1 C 53 % 1007,4 hPa 0,0 l/m 2 min 0 min 782 W/m 12,9 km/h (3 Bft) 100,00 %
07.08.2019 16:54 25,7 C 30,6 C 26,7 C 54 % 1007,5 hPa 0,0 l/m 2 min 0 min 747 W/m 9,7 km/h (2 Bft) 100,00 %
07.08.2019 16:56 25,8 C 27,2 C 25,6 C 53 % 1007,5 hPa 0,0 l/m 2 min 0 min 562 W/m 19,3 km/h (3 Bft) 100,00 %
07.08.2019 16:58 25,8 C 26,7 C 25,6 C 52 % 1007,5 hPa 0,0 l/m 2 min 0 min 324 W/m 9,7 km/h (2 Bft) 100,00 %
07.08.2019 17:00 25,8 C 26,7 C 25,6 C 53 % 1007,4 hPa 0,0 l/m 0 min 0 min 265 W/m 6,4 km/h (2 Bft) 100,00 %
07.08.2019 17:02 25,8 C 27,2 C 25,6 C 52 % 1007,4 hPa 0,0 l/m 2 min 0 min 343 W/m 19,3 km/h (3 Bft) 100,00 %
07.08.2019 17:04 25,9 C 27,2 C 25,6 C 53 % 1007,4 hPa 0,0 l/m 2 min 0 min 336 W/m 9,7 km/h (2 Bft) 100,00 %
07.08.2019 17:06 25,9 C 28,9 C 26,1 C 52 % 1007,4 hPa 0,0 l/m 2 min 0 min 436 W/m 9,7 km/h (2 Bft) 97,87 %
07.08.2019 17:08 25,9 C 28,9 C 26,1 C 51 % 1007,4 hPa 0,0 l/m 2 min 0 min 718 W/m 25,7 km/h (4 Bft) 97,87 %
07.08.2019 17:10 26,0 C 29,4 C 27,2 C 52 % 1007,4 hPa 0,0 l/m 2 min 0 min 714 W/m 9,7 km/h (2 Bft) 100,00 %
07.08.2019 17:12 26,0 C 28,9 C 26,7 C 52 % 1007,4 hPa 0,0 l/m 2 min 0 min 555 W/m 12,9 km/h (3 Bft) 97,87 %
07.08.2019 17:14 26,1 C 27,8 C 26,1 C 51 % 1007,4 hPa 0,0 l/m 2 min 0 min 307 W/m 19,3 km/h (3 Bft) 97,87 %
07.08.2019 17:16 26,1 C 27,2 C 25,6 C 51 % 1007,5 hPa 0,0 l/m 2 min 0 min 327 W/m 16,1 km/h (3 Bft) 100,00 %
07.08.2019 17:18 26,1 C 27,8 C 25,6 C 51 % 1007,4 hPa 0,0 l/m 2 min 0 min 288 W/m 16,1 km/h (3 Bft) 95,74 %
07.08.2019 17:20 26,1 C 28,9 C 26,1 C 52 % 1007,4 hPa 0,0 l/m 2 min 0 min 515 W/m 16,1 km/h (3 Bft) 95,74 %
07.08.2019 17:22 26,1 C 27,8 C 25,6 C 51 % 1007,3 hPa 0,0 l/m 2 min 0 min 724 W/m 12,9 km/h (3 Bft) 97,83 %
07.08.2019 17:24 26,1 C 27,2 C 25,6 C 51 % 1007,4 hPa 0,0 l/m 2 min 0 min 566 W/m 19,3 km/h (3 Bft) 100,00 %
07.08.2019 17:26 26,1 C 26,7 C 25,6 C 51 % 1007,3 hPa 0,0 l/m 2 min 0 min 369 W/m 19,3 km/h (3 Bft) 100,00 %
07.08.2019 17:28 26,1 C 26,7 C 25,6 C 52 % 1007,4 hPa 0,0 l/m 2 min 0 min 296 W/m 16,1 km/h (3 Bft) 100,00 %
07.08.2019 17:30 26,0 C 25,6 C 25,0 C 51 % 1007,4 hPa 0,0 l/m 0 min 0 min 229 W/m 16,1 km/h (3 Bft) 97,87 %
07.08.2019 17:32 25,9 C 26,1 C 25,0 C 52 % 1007,5 hPa 0,0 l/m 2 min 0 min 292 W/m 9,7 km/h (2 Bft) 97,87 %
07.08.2019 17:34 25,9 C 26,1 C 25,0 C 52 % 1007,3 hPa 0,0 l/m 2 min 0 min 267 W/m 9,7 km/h (2 Bft) 97,83 %
07.08.2019 17:36 25,8 C 25,6 C 25,0 C 52 % 1007,3 hPa 0,0 l/m 0 min 0 min 193 W/m 9,7 km/h (2 Bft) 97,87 %
07.08.2019 17:38 25,8 C 25,0 C 24,4 C 51 % 1007,4 hPa 0,0 l/m 0 min 0 min 160 W/m 12,9 km/h (3 Bft) 98,11 %
07.08.2019 17:40 25,7 C 25,0 C 24,4 C 51 % 1007,4 hPa 0,0 l/m 0 min 0 min 195 W/m 12,9 km/h (3 Bft) 95,74 %
07.08.2019 17:42 25,7 C 26,7 C 25,0 C 52 % 1007,4 hPa 0,0 l/m 2 min 0 min 251 W/m 9,7 km/h (2 Bft) 97,87 %
07.08.2019 17:44 25,7 C 26,1 C 25,0 C 52 % 1007,4 hPa 0,0 l/m 0 min 0 min 235 W/m 12,9 km/h (3 Bft) 97,87 %
07.08.2019 17:46 25,6 C 25,6 C 25,0 C 52 % 1007,5 hPa 0,0 l/m 0 min 0 min 211 W/m 12,9 km/h (3 Bft) 97,87 %
07.08.2019 17:48 25,6 C 25,6 C 25,0 C 53 % 1007,5 hPa 0,0 l/m 0 min 0 min 192 W/m 9,7 km/h (2 Bft) 97,83 %
07.08.2019 17:50 25,6 C 25,0 C 25,0 C 53 % 1007,5 hPa 0,0 l/m 0 min 0 min 188 W/m 12,9 km/h (3 Bft) 97,87 %
07.08.2019 17:52 25,5 C 25,0 C 24,4 C 53 % 1007,5 hPa 0,0 l/m 0 min 0 min 187 W/m 9,7 km/h (2 Bft) 95,74 %
07.08.2019 17:54 25,4 C 24,4 C 24,4 C 53 % 1007,4 hPa 0,0 l/m 0 min 0 min 191 W/m 16,1 km/h (3 Bft) 97,87 %
07.08.2019 17:56 25,3 C 25,0 C 24,4 C 53 % 1007,3 hPa 0,0 l/m 0 min 0 min 182 W/m 6,4 km/h (2 Bft) 95,74 %
07.08.2019 17:58 25,3 C 24,4 C 24,4 C 53 % 1007,4 hPa 0,0 l/m 0 min 0 min 156 W/m 12,9 km/h (3 Bft) 97,87 %
07.08.2019 18:00 25,2 C 24,4 C 24,4 C 54 % 1007,4 hPa 0,0 l/m 0 min 0 min 138 W/m 16,1 km/h (3 Bft) 95,65 %
07.08.2019 18:02 25,2 C 24,4 C 24,4 C 54 % 1007,3 hPa 0,0 l/m 0 min 0 min 133 W/m 9,7 km/h (2 Bft) 97,87 %
07.08.2019 18:04 25,1 C 24,4 C 23,9 C 54 % 1007,3 hPa 0,0 l/m 0 min 0 min 136 W/m 9,7 km/h (2 Bft) 97,87 %
07.08.2019 18:08 25,0 C 24,4 C 23,9 C 54 % 1007,4 hPa 0,0 l/m 0 min 0 min 187 W/m 12,9 km/h (3 Bft) 95,74 %
07.08.2019 18:10 24,9 C 25,6 C 24,4 C 54 % 1007,5 hPa 0,0 l/m 2 min 0 min 285 W/m 16,1 km/h (3 Bft) 97,87 %
07.08.2019 18:12 24,9 C 26,7 C 24,4 C 54 % 1007,4 hPa 0,0 l/m 2 min 0 min 484 W/m 12,9 km/h (3 Bft) 97,83 %
07.08.2019 18:14 24,9 C 26,1 C 24,4 C 55 % 1007,4 hPa 0,0 l/m 2 min 0 min 361 W/m 12,9 km/h (3 Bft) 95,74 %
07.08.2019 18:16 24,9 C 25,6 C 24,4 C 55 % 1007,4 hPa 0,0 l/m 2 min 0 min 238 W/m 9,7 km/h (2 Bft) 97,87 %
07.08.2019 18:18 24,9 C 26,1 C 24,4 C 56 % 1007,3 hPa 0,0 l/m 2 min 0 min 219 W/m 9,7 km/h (2 Bft) 97,87 %
07.08.2019 18:20 24,9 C 27,2 C 24,4 C 55 % 1007,4 hPa 0,0 l/m 2 min 0 min 405 W/m 16,1 km/h (3 Bft) 100,00 %
07.08.2019 18:22 24,9 C 27,2 C 24,4 C 55 % 1007,4 hPa 0,0 l/m 2 min 0 min 508 W/m 12,9 km/h (3 Bft) 95,74 %
07.08.2019 18:24 24,9 C 26,1 C 24,4 C 54 % 1007,5 hPa 0,0 l/m 2 min 0 min 215 W/m 12,9 km/h (3 Bft) 95,65 %
07.08.2019 18:26 24,9 C 25,0 C 24,4 C 54 % 1007,5 hPa 0,0 l/m 0 min 0 min 158 W/m 19,3 km/h (3 Bft) 95,74 %
07.08.2019 18:28 24,9 C 25,6 C 23,9 C 54 % 1007,5 hPa 0,0 l/m 2 min 0 min 210 W/m 19,3 km/h (3 Bft) 95,74 %
07.08.2019 18:30 24,9 C 26,1 C 24,4 C 54 % 1007,4 hPa 0,0 l/m 2 min 0 min 314 W/m 16,1 km/h (3 Bft) 93,62 %
07.08.2019 18:32 24,9 C 26,7 C 24,4 C 54 % 1007,4 hPa 0,0 l/m 2 min 0 min 432 W/m 16,1 km/h (3 Bft) 95,74 %
07.08.2019 18:34 25,0 C 27,8 C 24,4 C 54 % 1007,4 hPa 0,0 l/m 2 min 0 min 443 W/m 9,7 km/h (2 Bft) 95,65 %
07.08.2019 18:36 25,0 C 28,3 C 24,4 C 54 % 1007,4 hPa 0,0 l/m 2 min 0 min 444 W/m 9,7 km/h (2 Bft) 95,74 %
07.08.2019 18:38 25,1 C 27,8 C 25,0 C 54 % 1007,5 hPa 0,0 l/m 2 min 0 min 433 W/m 12,9 km/h (3 Bft) 95,74 %
07.08.2019 18:40 25,1 C 27,8 C 24,4 C 54 % 1007,4 hPa 0,0 l/m 2 min 0 min 398 W/m 19,3 km/h (3 Bft) 95,74 %
07.08.2019 18:42 25,1 C 27,2 C 24,4 C 53 % 1007,5 hPa 0,0 l/m 2 min 0 min 396 W/m 16,1 km/h (3 Bft) 95,74 %
07.08.2019 18:44 25,2 C 27,8 C 24,4 C 53 % 1007,4 hPa 0,0 l/m 2 min 0 min 378 W/m 9,7 km/h (2 Bft) 93,62 %
07.08.2019 18:46 25,2 C 27,8 C 24,4 C 53 % 1007,3 hPa 0,0 l/m 2 min 0 min 363 W/m 19,3 km/h (3 Bft) 93,48 %
07.08.2019 18:48 25,3 C 28,3 C 24,4 C 54 % 1007,4 hPa 0,0 l/m 2 min 0 min 358 W/m 9,7 km/h (2 Bft) 95,74 %
07.08.2019 18:50 25,3 C 28,3 C 24,4 C 54 % 1007,4 hPa 0,0 l/m 2 min 0 min 352 W/m 9,7 km/h (2 Bft) 95,74 %
07.08.2019 18:52 25,4 C 27,8 C 24,4 C 55 % 1007,3 hPa 0,0 l/m 2 min 0 min 345 W/m 6,4 km/h (2 Bft) 93,62 %
07.08.2019 18:54 25,4 C 28,3 C 24,4 C 55 % 1007,4 hPa 0,0 l/m 2 min 0 min 346 W/m 9,7 km/h (2 Bft) 93,62 %
07.08.2019 18:56 25,5 C 28,3 C 24,4 C 54 % 1007,3 hPa 0,0 l/m 2 min 0 min 346 W/m 9,7 km/h (2 Bft) 95,74 %
07.08.2019 18:58 25,5 C 27,8 C 24,4 C 54 % 1007,4 hPa 0,0 l/m 2 min 0 min 340 W/m 12,9 km/h (3 Bft) 95,65 %
07.08.2019 19:00 25,5 C 27,8 C 24,4 C 53 % 1007,4 hPa 0,0 l/m 2 min 0 min 336 W/m 9,7 km/h (2 Bft) 93,62 %
07.08.2019 19:02 25,6 C 27,2 C 24,4 C 53 % 1007,4 hPa 0,0 l/m 2 min 0 min 320 W/m 12,9 km/h (3 Bft) 93,62 %
07.08.2019 19:04 25,5 C 26,7 C 23,9 C 52 % 1007,3 hPa 0,0 l/m 2 min 0 min 300 W/m 16,1 km/h (3 Bft) 91,49 %
07.08.2019 19:06 25,5 C 26,7 C 23,9 C 53 % 1007,3 hPa 0,0 l/m 2 min 0 min 285 W/m 9,7 km/h (2 Bft) 95,74 %
07.08.2019 19:08 25,4 C 26,1 C 23,9 C 53 % 1007,3 hPa 0,0 l/m 2 min 0 min 278 W/m 9,7 km/h (2 Bft) 95,74 %
07.08.2019 19:10 25,4 C 25,0 C 23,9 C 53 % 1007,3 hPa 0,0 l/m 2 min 0 min 273 W/m 16,1 km/h (3 Bft) 95,65 %
07.08.2019 19:12 25,3 C 25,0 C 23,9 C 52 % 1007,3 hPa 0,0 l/m 2 min 0 min 225 W/m 9,7 km/h (2 Bft) 95,74 %
07.08.2019 19:14 25,3 C 24,4 C 23,9 C 53 % 1007,3 hPa 0,0 l/m 0 min 0 min 121 W/m 9,7 km/h (2 Bft) 97,87 %
07.08.2019 19:16 25,2 C 23,9 C 23,9 C 52 % 1007,4 hPa 0,0 l/m 0 min 0 min 82 W/m 22,5 km/h (4 Bft) 95,74 %
07.08.2019 19:18 25,1 C 23,9 C 23,3 C 53 % 1007,5 hPa 0,0 l/m 0 min 0 min 79 W/m 9,7 km/h (2 Bft) 97,87 %
07.08.2019 19:20 25,1 C 23,3 C 23,3 C 53 % 1007,4 hPa 0,0 l/m 0 min 0 min 72 W/m 6,4 km/h (2 Bft) 97,87 %
07.08.2019 19:22 25,0 C 23,3 C 23,3 C 53 % 1007,5 hPa 0,0 l/m 0 min 0 min 71 W/m 6,4 km/h (2 Bft) 100,00 %
07.08.2019 19:24 24,9 C 23,3 C 22,8 C 54 % 1007,5 hPa 0,0 l/m 0 min 0 min 83 W/m 6,4 km/h (2 Bft) 100,00 %
07.08.2019 19:26 24,8 C 23,3 C 22,8 C 54 % 1007,5 hPa 0,0 l/m 0 min 0 min 75 W/m 12,9 km/h (3 Bft) 100,00 %
07.08.2019 19:28 24,7 C 23,3 C 22,8 C 54 % 1007,6 hPa 0,0 l/m 0 min 0 min 72 W/m 9,7 km/h (2 Bft) 100,00 %
07.08.2019 19:30 24,7 C 23,3 C 22,8 C 54 % 1007,6 hPa 0,0 l/m 0 min 0 min 79 W/m 9,7 km/h (2 Bft) 100,00 %
07.08.2019 19:32 24,6 C 23,3 C 22,8 C 54 % 1007,7 hPa 0,0 l/m 0 min 0 min 92 W/m 6,4 km/h (2 Bft) 100,00 %
07.08.2019 19:34 24,6 C 23,3 C 22,8 C 54 % 1007,7 hPa 0,0 l/m 0 min 0 min 86 W/m 9,7 km/h (2 Bft) 100,00 %
07.08.2019 19:36 24,5 C 23,3 C 22,8 C 54 % 1007,6 hPa 0,0 l/m 0 min 0 min 79 W/m 6,4 km/h (2 Bft) 100,00 %
07.08.2019 19:38 24,5 C 23,3 C 22,8 C 55 % 1007,6 hPa 0,0 l/m 0 min 0 min 77 W/m 9,7 km/h (2 Bft) 100,00 %
07.08.2019 19:40 24,4 C 23,3 C 22,8 C 55 % 1007,6 hPa 0,0 l/m 0 min 0 min 71 W/m 12,9 km/h (3 Bft) 100,00 %
07.08.2019 19:42 24,3 C 23,3 C 22,8 C 55 % 1007,6 hPa 0,0 l/m 0 min 0 min 62 W/m 9,7 km/h (2 Bft) 100,00 %
07.08.2019 19:44 24,3 C 23,3 C 22,8 C 55 % 1007,7 hPa 0,0 l/m 0 min 0 min 65 W/m 9,7 km/h (2 Bft) 100,00 %
07.08.2019 19:46 24,2 C 22,8 C 22,8 C 56 % 1007,7 hPa 0,0 l/m 0 min 0 min 65 W/m 9,7 km/h (2 Bft) 97,87 %
07.08.2019 19:48 24,2 C 22,8 C 22,8 C 55 % 1007,7 hPa 0,0 l/m 0 min 0 min 55 W/m 16,1 km/h (3 Bft) 100,00 %
07.08.2019 19:50 24,1 C 22,8 C 22,8 C 55 % 1007,7 hPa 0,0 l/m 0 min 0 min 52 W/m 9,7 km/h (2 Bft) 100,00 %
07.08.2019 19:52 24,1 C 22,8 C 22,8 C 55 % 1007,8 hPa 0,0 l/m 0 min 0 min 55 W/m 9,7 km/h (2 Bft) 100,00 %
07.08.2019 19:53 24,0 C 22,8 C 22,8 C 56 % 1007,8 hPa 0,0 l/m 0 min 0 min 56 W/m 9,7 km/h (2 Bft) 100,00 %
07.08.2019 19:56 24,0 C 22,8 C 22,8 C 57 % 1007,7 hPa 0,0 l/m 0 min 0 min 57 W/m 6,4 km/h (2 Bft) 100,00 %
07.08.2019 19:58 23,9 C 22,8 C 22,8 C 57 % 1007,8 hPa 0,0 l/m 0 min 0 min 56 W/m 6,4 km/h (2 Bft) 100,00 %
07.08.2019 20:00 23,9 C 22,8 C 22,8 C 57 % 1007,8 hPa 0,0 l/m 0 min 0 min 47 W/m 6,4 km/h (2 Bft) 97,87 %
07.08.2019 20:02 23,9 C 22,8 C 22,8 C 57 % 1007,8 hPa 0,0 l/m 0 min 0 min 46 W/m 9,7 km/h (2 Bft) 97,87 %
07.08.2019 20:04 23,8 C 22,8 C 22,2 C 57 % 1007,8 hPa 0,0 l/m 0 min 0 min 50 W/m 6,4 km/h (2 Bft) 100,00 %
07.08.2019 20:06 23,8 C 22,8 C 22,8 C 56 % 1007,9 hPa 0,0 l/m 0 min 0 min 55 W/m 16,1 km/h (3 Bft) 100,00 %
07.08.2019 20:08 23,8 C 22,8 C 22,8 C 56 % 1007,9 hPa 0,0 l/m 0 min 0 min 56 W/m 9,7 km/h (2 Bft) 97,87 %
07.08.2019 20:10 23,7 C 22,8 C 22,8 C 56 % 1008,0 hPa 0,0 l/m 0 min 0 min 56 W/m 9,7 km/h (2 Bft) 97,87 %
07.08.2019 20:12 23,7 C 22,8 C 22,8 C 56 % 1008,0 hPa 0,0 l/m 0 min 0 min 55 W/m 9,7 km/h (2 Bft) 97,87 %
07.08.2019 20:14 23,7 C 22,8 C 22,8 C 56 % 1008,0 hPa 0,0 l/m 0 min 0 min 49 W/m 9,7 km/h (2 Bft) 95,74 %
07.08.2019 20:16 23,6 C 22,8 C 22,2 C 57 % 1007,9 hPa 0,0 l/m 0 min 0 min 46 W/m 6,4 km/h (2 Bft) 97,87 %
07.08.2019 20:18 23,6 C 22,2 C 22,2 C 57 % 1007,9 hPa 0,0 l/m 0 min 0 min 44 W/m 6,4 km/h (2 Bft) 93,48 %
07.08.2019 20:20 23,6 C 22,2 C 22,2 C 57 % 1007,9 hPa 0,0 l/m 0 min 0 min 39 W/m 6,4 km/h (2 Bft) 97,87 %
07.08.2019 20:22 23,6 C 22,2 C 21,7 C 57 % 1008,0 hPa 0,0 l/m 0 min 0 min 33 W/m 9,7 km/h (2 Bft) 97,87 %
07.08.2019 20:24 23,5 C 22,2 C 21,7 C 57 % 1007,9 hPa 0,0 l/m 0 min 0 min 32 W/m 6,4 km/h (2 Bft) 97,87 %
07.08.2019 20:26 23,4 C 22,2 C 21,7 C 57 % 1007,9 hPa 0,0 l/m 0 min 0 min 29 W/m 9,7 km/h (2 Bft) 97,87 %
07.08.2019 20:28 23,4 C 22,2 C 22,2 C 57 % 1007,9 hPa 0,0 l/m 0 min 0 min 25 W/m 6,4 km/h (2 Bft) 97,87 %
07.08.2019 20:30 23,4 C 22,2 C 21,7 C 57 % 1007,9 hPa 0,0 l/m 0 min 0 min 24 W/m 12,9 km/h (3 Bft) 97,83 %
07.08.2019 20:32 23,3 C 21,7 C 21,7 C 57 % 1007,9 hPa 0,0 l/m 0 min 0 min 23 W/m 6,4 km/h (2 Bft) 97,87 %
07.08.2019 20:34 23,3 C 21,7 C 21,7 C 57 % 1007,9 hPa 0,0 l/m 0 min 0 min 22 W/m 6,4 km/h (2 Bft) 95,74 %
07.08.2019 20:36 23,3 C 21,7 C 21,7 C 58 % 1007,9 hPa 0,0 l/m 0 min 0 min 19 W/m 6,4 km/h (2 Bft) 95,74 %
07.08.2019 20:38 23,2 C 21,7 C 21,7 C 58 % 1008,0 hPa 0,0 l/m 0 min 0 min 18 W/m 6,4 km/h (2 Bft) 97,87 %
07.08.2019 20:40 23,2 C 21,7 C 21,7 C 58 % 1008,0 hPa 0,0 l/m 0 min 0 min 16 W/m 3,2 km/h (1 Bft) 97,83 %
07.08.2019 20:42 23,2 C 21,1 C 21,1 C 58 % 1008,0 hPa 0,0 l/m 0 min 0 min 17 W/m 6,4 km/h (2 Bft) 97,87 %
07.08.2019 20:44 23,1 C 21,1 C 21,1 C 59 % 1008,1 hPa 0,0 l/m 0 min 0 min 19 W/m 9,7 km/h (2 Bft) 95,74 %
07.08.2019 20:46 23,1 C 21,1 C 21,1 C 58 % 1008,1 hPa 0,0 l/m 0 min 0 min 18 W/m 3,2 km/h (1 Bft) 97,87 %
07.08.2019 20:48 23,1 C 21,1 C 21,1 C 59 % 1008,1 hPa 0,0 l/m 0 min 0 min 16 W/m 6,4 km/h (2 Bft) 97,87 %
07.08.2019 20:50 23,0 C 21,1 C 21,1 C 59 % 1008,1 hPa 0,0 l/m 0 min 0 min 12 W/m 3,2 km/h (1 Bft) 97,87 %
07.08.2019 20:52 22,9 C 21,1 C 21,1 C 59 % 1008,1 hPa 0,0 l/m 0 min 0 min 11 W/m 6,4 km/h (2 Bft) 100,00 %
07.08.2019 20:54 22,9 C 21,1 C 20,6 C 60 % 1008,1 hPa 0,0 l/m 0 min 0 min 11 W/m 3,2 km/h (1 Bft) 97,87 %
07.08.2019 20:56 22,9 C 20,6 C 20,6 C 60 % 1008,2 hPa 0,0 l/m 0 min 0 min 11 W/m 3,2 km/h (1 Bft) 100,00 %
07.08.2019 20:58 22,8 C 20,6 C 20,0 C 60 % 1008,2 hPa 0,0 l/m 0 min 0 min 9 W/m 3,2 km/h (1 Bft) 100,00 %
07.08.2019 21:00 22,8 C 20,6 C 20,0 C 61 % 1008,1 hPa 0,0 l/m 0 min 0 min 8 W/m 3,2 km/h (1 Bft) 100,00 %
07.08.2019 21:02 22,7 C 20,6 C 20,0 C 60 % 1008,2 hPa 0,0 l/m 0 min 0 min 7 W/m 6,4 km/h (2 Bft) 100,00 %
07.08.2019 21:04 22,7 C 20,6 C 20,0 C 60 % 1008,3 hPa 0,0 l/m 0 min 0 min 7 W/m 3,2 km/h (1 Bft) 97,83 %
07.08.2019 21:06 22,7 C 20,0 C 20,0 C 61 % 1008,3 hPa 0,0 l/m 0 min 0 min 7 W/m 0,0 km/h (0 Bft) 100,00 %
07.08.2019 21:08 22,6 C 20,0 C 20,0 C 62 % 1008,4 hPa 0,0 l/m 0 min 0 min 6 W/m 3,2 km/h (1 Bft) 100,00 %
07.08.2019 21:10 22,6 C 20,0 C 20,0 C 62 % 1008,2 hPa 0,0 l/m 0 min 0 min 4 W/m 3,2 km/h (1 Bft) 100,00 %
07.08.2019 21:12 22,5 C 20,0 C 20,0 C 64 % 1008,3 hPa 0,0 l/m 0 min 0 min 0 W/m 3,2 km/h (1 Bft) 95,74 %
07.08.2019 21:14 22,4 C 20,0 C 19,4 C 64 % 1008,4 hPa 0,0 l/m 0 min 0 min 0 W/m 6,4 km/h (2 Bft) 100,00 %
07.08.2019 21:16 22,4 C 19,4 C 19,4 C 64 % 1008,3 hPa 0,0 l/m 0 min 0 min 0 W/m 3,2 km/h (1 Bft) 100,00 %
07.08.2019 21:18 22,3 C 19,4 C 19,4 C 64 % 1008,4 hPa 0,0 l/m 0 min 0 min 0 W/m 3,2 km/h (1 Bft) 100,00 %
07.08.2019 21:20 22,2 C 19,4 C 19,4 C 64 % 1008,4 hPa 0,0 l/m 0 min 0 min 0 W/m 3,2 km/h (1 Bft) 100,00 %
07.08.2019 21:22 22,2 C 19,4 C 19,4 C 64 % 1008,4 hPa 0,0 l/m 0 min 0 min 0 W/m 3,2 km/h (1 Bft) 93,62 %
07.08.2019 21:24 22,1 C 19,4 C 19,4 C 64 % 1008,4 hPa 0,0 l/m 0 min 0 min 0 W/m 0,0 km/h (0 Bft) 100,00 %
07.08.2019 21:26 22,1 C 19,4 C 19,4 C 65 % 1008,5 hPa 0,0 l/m 0 min 0 min 0 W/m 0,0 km/h (0 Bft) 100,00 %
07.08.2019 21:28 22,0 C 19,4 C 19,4 C 65 % 1008,5 hPa 0,0 l/m 0 min 0 min 0 W/m 3,2 km/h (1 Bft) 100,00 %
07.08.2019 21:30 21,9 C 18,9 C 18,9 C 65 % 1008,5 hPa 0,0 l/m 0 min 0 min 0 W/m 0,0 km/h (0 Bft) 97,87 %
07.08.2019 21:32 21,9 C 18,9 C 18,9 C 65 % 1008,5 hPa 0,0 l/m 0 min 0 min 0 W/m 0,0 km/h (0 Bft) 95,74 %
07.08.2019 21:34 21,8 C 18,9 C 18,3 C 66 % 1008,5 hPa 0,0 l/m 0 min 0 min 0 W/m 0,0 km/h (0 Bft) 97,87 %
07.08.2019 21:36 21,8 C 18,9 C 18,3 C 67 % 1008,5 hPa 0,0 l/m 0 min 0 min 0 W/m 0,0 km/h (0 Bft) 97,87 %
07.08.2019 21:38 21,7 C 18,9 C 18,3 C 66 % 1008,5 hPa 0,0 l/m 0 min 0 min 0 W/m 0,0 km/h (0 Bft) 95,74 %
07.08.2019 21:40 21,6 C 18,3 C 17,8 C 67 % 1008,5 hPa 0,0 l/m 0 min 0 min 0 W/m 0,0 km/h (0 Bft) 97,83 %
07.08.2019 21:42 21,6 C 18,3 C 17,8 C 67 % 1008,5 hPa 0,0 l/m 0 min 0 min 0 W/m 0,0 km/h (0 Bft) 93,62 %
07.08.2019 21:44 21,5 C 18,9 C 17,8 C 67 % 1008,6 hPa 0,0 l/m 0 min 0 min 0 W/m 0,0 km/h (0 Bft) 95,74 %
07.08.2019 21:46 21,4 C 18,9 C 17,8 C 67 % 1008,6 hPa 0,0 l/m 0 min 0 min 0 W/m 0,0 km/h (0 Bft) 95,74 %
07.08.2019 21:48 21,3 C 18,9 C 17,8 C 67 % 1008,5 hPa 0,0 l/m 0 min 0 min 0 W/m 0,0 km/h (0 Bft) 95,74 %
07.08.2019 21:50 21,3 C 18,9 C 17,8 C 67 % 1008,7 hPa 0,0 l/m 0 min 0 min 0 W/m 3,2 km/h (1 Bft) 93,62 %
07.08.2019 21:52 21,3 C 18,9 C 17,8 C 67 % 1008,7 hPa 0,0 l/m 0 min 0 min 0 W/m 3,2 km/h (1 Bft) 93,48 %
07.08.2019 21:54 21,2 C 18,9 C 17,8 C 67 % 1008,7 hPa 0,0 l/m 0 min 0 min 0 W/m 3,2 km/h (1 Bft) 97,87 %
07.08.2019 21:56 21,2 C 18,9 C 17,8 C 67 % 1008,7 hPa 0,0 l/m 0 min 0 min 0 W/m 3,2 km/h (1 Bft) 95,74 %
07.08.2019 21:58 21,1 C 18,9 C 18,3 C 67 % 1008,8 hPa 0,0 l/m 0 min 0 min 0 W/m 6,4 km/h (2 Bft) 95,74 %
07.08.2019 22:00 21,1 C 18,9 C 18,3 C 67 % 1008,8 hPa 0,0 l/m 0 min 0 min 0 W/m 3,2 km/h (1 Bft) 91,49 %
07.08.2019 22:02 21,0 C 18,9 C 18,3 C 67 % 1008,8 hPa 0,0 l/m 0 min 0 min 0 W/m 3,2 km/h (1 Bft) 93,48 %
07.08.2019 22:04 20,9 C 18,9 C 18,3 C 68 % 1008,9 hPa 0,0 l/m 0 min 0 min 0 W/m 9,7 km/h (2 Bft) 95,74 %
07.08.2019 22:06 20,9 C 18,9 C 18,9 C 68 % 1008,9 hPa 0,0 l/m 0 min 0 min 0 W/m 6,4 km/h (2 Bft) 95,74 %
07.08.2019 22:08 20,8 C 18,9 C 18,9 C 69 % 1008,9 hPa 0,0 l/m 0 min 0 min 0 W/m 6,4 km/h (2 Bft) 95,74 %
07.08.2019 22:10 20,8 C 18,9 C 18,9 C 69 % 1008,9 hPa 0,0 l/m 0 min 0 min 0 W/m 6,4 km/h (2 Bft) 95,74 %
07.08.2019 22:12 20,8 C 18,9 C 18,9 C 70 % 1009,0 hPa 0,0 l/m 0 min 0 min 0 W/m 6,4 km/h (2 Bft) 95,74 %
07.08.2019 22:14 20,7 C 18,9 C 18,9 C 70 % 1009,0 hPa 0,0 l/m 0 min 0 min 0 W/m 9,7 km/h (2 Bft) 95,65 %
07.08.2019 22:16 20,7 C 18,9 C 18,9 C 70 % 1009,0 hPa 0,0 l/m 0 min 0 min 0 W/m 6,4 km/h (2 Bft) 97,87 %
07.08.2019 22:18 20,6 C 18,9 C 18,9 C 70 % 1009,0 hPa 0,0 l/m 0 min 0 min 0 W/m 6,4 km/h (2 Bft) 97,87 %
07.08.2019 22:20 20,6 C 18,9 C 18,3 C 70 % 1009,0 hPa 0,0 l/m 0 min 0 min 0 W/m 3,2 km/h (1 Bft) 97,87 %
07.08.2019 22:22 20,6 C 18,9 C 18,3 C 70 % 1009,0 hPa 0,0 l/m 0 min 0 min 0 W/m 3,2 km/h (1 Bft) 97,87 %
07.08.2019 22:24 20,5 C 18,9 C 18,3 C 70 % 1009,1 hPa 0,0 l/m 0 min 0 min 0 W/m 3,2 km/h (1 Bft) 95,74 %
07.08.2019 22:26 20,5 C 18,9 C 18,3 C 70 % 1009,1 hPa 0,0 l/m 0 min 0 min 0 W/m 3,2 km/h (1 Bft) 95,65 %
07.08.2019 22:28 20,4 C 18,9 C 18,3 C 71 % 1009,2 hPa 0,0 l/m 0 min 0 min 0 W/m 6,4 km/h (2 Bft) 97,87 %
07.08.2019 22:30 20,4 C 18,9 C 18,3 C 71 % 1009,3 hPa 0,0 l/m 0 min 0 min 0 W/m 9,7 km/h (2 Bft) 97,87 %
07.08.2019 22:32 20,4 C 18,9 C 18,3 C 71 % 1009,3 hPa 0,0 l/m 0 min 0 min 0 W/m 6,4 km/h (2 Bft) 97,87 %
07.08.2019 22:34 20,3 C 18,9 C 18,3 C 72 % 1009,2 hPa 0,0 l/m 0 min 0 min 0 W/m 6,4 km/h (2 Bft) 97,87 %
07.08.2019 22:36 20,3 C 18,9 C 18,3 C 72 % 1009,2 hPa 0,0 l/m 0 min 0 min 0 W/m 3,2 km/h (1 Bft) 95,74 %
07.08.2019 22:38 20,3 C 18,3 C 18,3 C 73 % 1009,3 hPa 0,0 l/m 0 min 0 min 0 W/m 6,4 km/h (2 Bft) 97,83 %
07.08.2019 22:40 20,2 C 18,3 C 18,3 C 73 % 1009,3 hPa 0,0 l/m 0 min 0 min 0 W/m 6,4 km/h (2 Bft) 95,74 %
07.08.2019 22:42 20,2 C 18,3 C 18,3 C 74 % 1009,3 hPa 0,0 l/m 0 min 0 min 0 W/m 9,7 km/h (2 Bft) 93,62 %
07.08.2019 22:44 20,2 C 18,3 C 18,3 C 74 % 1009,3 hPa 0,0 l/m 0 min 0 min 0 W/m 3,2 km/h (1 Bft) 100,00 %
07.08.2019 22:46 20,2 C 18,3 C 18,3 C 74 % 1009,4 hPa 0,0 l/m 0 min 0 min 0 W/m 6,4 km/h (2 Bft) 100,00 %
07.08.2019 22:48 20,2 C 18,3 C 18,3 C 75 % 1009,4 hPa 0,0 l/m 0 min 0 min 0 W/m 6,4 km/h (2 Bft) 97,87 %
07.08.2019 22:50 20,1 C 18,3 C 18,3 C 75 % 1009,4 hPa 0,0 l/m 0 min 0 min 0 W/m 9,7 km/h (2 Bft) 100,00 %
07.08.2019 22:52 20,1 C 18,3 C 18,3 C 75 % 1009,4 hPa 0,0 l/m 0 min 0 min 0 W/m 9,7 km/h (2 Bft) 97,87 %
07.08.2019 22:54 20,1 C 18,3 C 18,3 C 76 % 1009,4 hPa 0,0 l/m 0 min 0 min 0 W/m 6,4 km/h (2 Bft) 93,62 %
07.08.2019 22:56 20,0 C 18,3 C 18,3 C 76 % 1009,4 hPa 0,0 l/m 0 min 0 min 0 W/m 9,7 km/h (2 Bft) 97,87 %
07.08.2019 22:58 19,9 C 18,3 C 18,3 C 76 % 1009,5 hPa 0,0 l/m 0 min 0 min 0 W/m 6,4 km/h (2 Bft) 95,74 %
07.08.2019 23:00 19,9 C 18,3 C 18,3 C 76 % 1009,5 hPa 0,0 l/m 0 min 0 min 0 W/m 12,9 km/h (3 Bft) 97,83 %
07.08.2019 23:02 19,9 C 18,3 C 17,8 C 77 % 1009,5 hPa 0,0 l/m 0 min 0 min 0 W/m 9,7 km/h (2 Bft) 97,87 %
07.08.2019 23:04 19,8 C 18,3 C 17,8 C 77 % 1009,5 hPa 0,0 l/m 0 min 0 min 0 W/m 9,7 km/h (2 Bft) 97,87 %
07.08.2019 23:06 19,8 C 18,3 C 17,8 C 77 % 1009,5 hPa 0,0 l/m 0 min 0 min 0 W/m 6,4 km/h (2 Bft) 97,87 %
07.08.2019 23:08 19,8 C 18,3 C 17,8 C 77 % 1009,5 hPa 0,0 l/m 0 min 0 min 0 W/m 6,4 km/h (2 Bft) 95,74 %
07.08.2019 23:10 19,7 C 17,8 C 17,8 C 78 % 1009,5 hPa 0,0 l/m 0 min 0 min 0 W/m 3,2 km/h (1 Bft) 97,87 %
07.08.2019 23:12 19,7 C 17,8 C 17,8 C 78 % 1009,5 hPa 0,0 l/m 0 min 0 min 0 W/m 3,2 km/h (1 Bft) 95,65 %
07.08.2019 23:14 19,7 C 17,8 C 17,8 C 78 % 1009,6 hPa 0,0 l/m 0 min 0 min 0 W/m 6,4 km/h (2 Bft) 97,87 %
07.08.2019 23:16 19,6 C 17,8 C 17,8 C 78 % 1009,6 hPa 0,0 l/m 0 min 0 min 0 W/m 3,2 km/h (1 Bft) 97,87 %
07.08.2019 23:18 19,6 C 17,8 C 17,8 C 78 % 1009,6 hPa 0,0 l/m 0 min 0 min 0 W/m 6,4 km/h (2 Bft) 97,87 %
07.08.2019 23:20 19,6 C 17,8 C 17,8 C 78 % 1009,5 hPa 0,0 l/m 0 min 0 min 0 W/m 3,2 km/h (1 Bft) 95,74 %
07.08.2019 23:22 19,5 C 17,8 C 17,8 C 78 % 1009,5 hPa 0,0 l/m 0 min 0 min 0 W/m 3,2 km/h (1 Bft) 97,87 %
07.08.2019 23:24 19,5 C 17,8 C 17,8 C 78 % 1009,6 hPa 0,0 l/m 0 min 0 min 0 W/m 6,4 km/h (2 Bft) 97,83 %
07.08.2019 23:26 19,4 C 17,8 C 17,8 C 78 % 1009,6 hPa 0,0 l/m 0 min 0 min 0 W/m 3,2 km/h (1 Bft) 97,87 %
07.08.2019 23:28 19,4 C 17,8 C 17,8 C 78 % 1009,7 hPa 0,0 l/m 0 min 0 min 0 W/m 0,0 km/h (0 Bft) 97,87 %
07.08.2019 23:30 19,4 C 17,8 C 17,8 C 78 % 1009,5 hPa 0,0 l/m 0 min 0 min 0 W/m 3,2 km/h (1 Bft) 95,74 %
07.08.2019 23:32 19,4 C 17,8 C 17,8 C 79 % 1009,6 hPa 0,0 l/m 0 min 0 min 0 W/m 6,4 km/h (2 Bft) 97,87 %
07.08.2019 23:34 19,3 C 17,8 C 17,8 C 79 % 1009,6 hPa 0,0 l/m 0 min 0 min 0 W/m 3,2 km/h (1 Bft) 97,87 %
07.08.2019 23:36 19,3 C 17,8 C 17,8 C 79 % 1009,6 hPa 0,0 l/m 0 min 0 min 0 W/m 6,4 km/h (2 Bft) 97,83 %
07.08.2019 23:38 19,3 C 17,8 C 17,8 C 79 % 1009,6 hPa 0,0 l/m 0 min 0 min 0 W/m 6,4 km/h (2 Bft) 97,87 %
07.08.2019 23:40 19,3 C 17,8 C 17,8 C 79 % 1009,6 hPa 0,0 l/m 0 min 0 min 0 W/m 9,7 km/h (2 Bft) 97,87 %
07.08.2019 23:42 19,2 C 17,8 C 17,8 C 79 % 1009,6 hPa 0,0 l/m 0 min 0 min 0 W/m 6,4 km/h (2 Bft) 97,87 %
07.08.2019 23:44 19,2 C 17,8 C 17,8 C 79 % 1009,7 hPa 0,0 l/m 0 min 0 min 0 W/m 6,4 km/h (2 Bft) 100,00 %
07.08.2019 23:46 19,2 C 17,8 C 17,8 C 79 % 1009,6 hPa 0,0 l/m 0 min 0 min 0 W/m 6,4 km/h (2 Bft) 100,00 %
07.08.2019 23:48 19,1 C 17,8 C 17,8 C 79 % 1009,6 hPa 0,0 l/m 0 min 0 min 0 W/m 6,4 km/h (2 Bft) 97,83 %
07.08.2019 23:50 19,1 C 17,8 C 17,8 C 79 % 1009,6 hPa 0,0 l/m 0 min 0 min 0 W/m 6,4 km/h (2 Bft) 97,87 %
07.08.2019 23:52 19,1 C 17,8 C 17,8 C 79 % 1009,7 hPa 0,0 l/m 0 min 0 min 0 W/m 6,4 km/h (2 Bft) 100,00 %
07.08.2019 23:54 19,1 C 17,8 C 17,8 C 79 % 1009,7 hPa 0,0 l/m 0 min 0 min 0 W/m 6,4 km/h (2 Bft) 100,00 %
07.08.2019 23:56 19,0 C 17,8 C 17,8 C 80 % 1009,7 hPa 0,0 l/m 0 min 0 min 0 W/m 12,9 km/h (3 Bft) 100,00 %
07.08.2019 23:58 19,0 C 17,8 C 17,8 C 80 % 1009,7 hPa 0,0 l/m 0 min 0 min 0 W/m 9,7 km/h (2 Bft) 97,83 %
_ Min-Zeit 06:26 05:44 06:00 16:22 14:10 - - - - 05:54 02:22
Minimum _ 17,3 C 16,1 C 16,1 C 51 % 1007,2 hPa - - - - 0,0 km/h (0 Bft) 85,11 %
_ Max-Zeit 16:20 16:16 13:34 04:12 23:28 00:00 12:08 00:00 16:12 12:30 00:02
Maximum _ 26,3 C 32,2 C 28,9 C 91 % 1009,7 hPa 0,0 l/m 4 min 0 min 957 W/m 41,8 km/h
O-SO (6 Bft)
100,00 %
Durchschnitt _ 21,6 C 22,0 C 21,2 C 71 % 1007,8 hPa #0,0 l/m #8:36 h #0 min. 372 W/m 11,7 km/h (2 Bft) 97,40 %
© 2019 W. Hausmann